Observation data for Stamford on 02/13/2018      Previous  Date  Next       Current Mesonet Observations  Soil Data  Daily Summary Page  Observations in Plain Language
KST2 130600Z 13008KT 02/M04 A3034 RMK A01 T00201044  RH  063%=      5-min Rain = 0
KST2 130601Z 13009KT 02/M04 A3034 RMK A01 T00191044  RH  063%=      5-min Rain = 0
KST2 130602Z 13008KT 02/M05 A3034 RMK A01 T00191045  RH  062%=      5-min Rain = 0
KST2 130603Z 13008KT 02/M04 A3034 RMK A01 T00191044  RH  063%=      5-min Rain = 0
KST2 130604Z 13008KT 02/M04 A3034 RMK A01 T00191044  RH  063%=      5-min Rain = 0
KST2 130605Z 13008KT 02/M05 A3034 RMK A01 T00181045  RH  063%=      5-min Rain = 0
KST2 130606Z 13008KT 02/M05 A3034 RMK A01 T00181045  RH  063%=      5-min Rain = 0
KST2 130607Z 13008KT 02/M04 A3034 RMK A01 T00181044  RH  063%=      5-min Rain = 0
KST2 130608Z 13008KT 02/M04 A3034 RMK A01 T00181044  RH  063%=      5-min Rain = 0
KST2 130609Z 13008KT 02/M04 A3034 RMK A01 T00181044  RH  064%=      5-min Rain = 0
KST2 130610Z 13007KT 02/M04 A3034 RMK A01 T00181043  RH  064%=      5-min Rain = 0
KST2 130611Z 13007KT 02/M04 A3034 RMK A01 T00171044  RH  064%=      5-min Rain = 0
KST2 130612Z 13007KT 02/M04 A3034 RMK A01 T00181043  RH  064%=      5-min Rain = 0
KST2 130613Z 13007KT 02/M04 A3034 RMK A01 T00181043  RH  064%=      5-min Rain = 0
KST2 130614Z 13007KT 02/M05 A3034 RMK A01 T00171045  RH  064%=      5-min Rain = 0
KST2 130615Z 13007KT 02/M04 A3034 RMK A01 T00171044  RH  064%=      5-min Rain = 0
KST2 130616Z 13007KT 02/M04 A3034 RMK A01 T00161044  RH  064%=      5-min Rain = 0
KST2 130617Z 13007KT 02/M05 A3034 RMK A01 T00161045  RH  064%=      5-min Rain = 0
KST2 130618Z 13007KT 02/M05 A3034 RMK A01 T00151046  RH  064%=      5-min Rain = 0
KST2 130619Z 13007KT 02/M05 A3034 RMK A01 T00151045  RH  064%=      5-min Rain = 0
KST2 130620Z 13007KT 02/M05 A3034 RMK A01 T00151045  RH  064%=      5-min Rain = 0
KST2 130621Z 13007KT 02/M04 A3034 RMK A01 T00151043  RH  065%=      5-min Rain = 0
KST2 130622Z 13007KT 02/M04 A3034 RMK A01 T00151044  RH  065%=      5-min Rain = 0
KST2 130623Z 13007KT 02/M04 A3034 RMK A01 T00151044  RH  065%=      5-min Rain = 0
KST2 130624Z 13007KT 02/M04 A3034 RMK A01 T00151044  RH  065%=      5-min Rain = 0
KST2 130625Z 13007KT 02/M04 A3034 RMK A01 T00151044  RH  065%=      5-min Rain = 0
KST2 130626Z 13008KT 01/M04 A3034 RMK A01 T00141044  RH  065%=      5-min Rain = 0
KST2 130627Z 13007KT 01/M04 A3034 RMK A01 T00141042  RH  066%=      5-min Rain = 0
KST2 130628Z 13007KT 02/M04 A3034 RMK A01 T00151044  RH  065%=      5-min Rain = 0
KST2 130629Z 13007KT 01/M04 A3034 RMK A01 T00141044  RH  065%=      5-min Rain = 0
KST2 130630Z 13008KT 01/M04 A3034 RMK A01 T00141044  RH  065%=      5-min Rain = 0
KST2 130631Z 13008KT 01/M04 A3034 RMK A01 T00131044  RH  066%=      5-min Rain = 0
KST2 130632Z 13007KT 01/M04 A3034 RMK A01 T00141043  RH  066%=      5-min Rain = 0
KST2 130633Z 13008KT 01/M04 A3034 RMK A01 T00131044  RH  066%=      5-min Rain = 0
KST2 130634Z 13008KT 01/M04 A3034 RMK A01 T00131044  RH  066%=      5-min Rain = 0
KST2 130635Z 13008KT 01/M04 A3034 RMK A01 T00131044  RH  066%=      5-min Rain = 0
KST2 130636Z 13008KT 01/M05 A3034 RMK A01 T00121045  RH  066%=      5-min Rain = 0
KST2 130637Z 13008KT 01/M05 A3034 RMK A01 T00121045  RH  066%=      5-min Rain = 0
KST2 130638Z 13008KT 01/M05 A3033 RMK A01 T00121045  RH  066%=      5-min Rain = 0
KST2 130639Z 13008KT 01/M05 A3033 RMK A01 T00111045  RH  066%=      5-min Rain = 0
KST2 130640Z 13008KT 01/M05 A3033 RMK A01 T00111045  RH  066%=      5-min Rain = 0
KST2 130641Z 13008KT 01/M05 A3033 RMK A01 T00101045  RH  067%=      5-min Rain = 0
KST2 130642Z 13008KT 01/M04 A3033 RMK A01 T00111044  RH  067%=      5-min Rain = 0
KST2 130643Z 13008KT 01/M04 A3033 RMK A01 T00111044  RH  067%=      5-min Rain = 0
KST2 130644Z 13008KT 01/M04 A3033 RMK A01 T00111044  RH  067%=      5-min Rain = 0
KST2 130645Z 13008KT 01/M04 A3033 RMK A01 T00111043  RH  067%=      5-min Rain = 0
KST2 130646Z 13008KT 01/M04 A3033 RMK A01 T00111042  RH  068%=      5-min Rain = 0
KST2 130647Z 13008KT 01/M04 A3033 RMK A01 T00111043  RH  068%=      5-min Rain = 0
KST2 130648Z 13008KT 01/M04 A3033 RMK A01 T00111043  RH  068%=      5-min Rain = 0
KST2 130649Z 13008KT 01/M04 A3033 RMK A01 T00111042  RH  068%=      5-min Rain = 0
KST2 130650Z 12008KT 01/M04 A3033 RMK A01 T00101042  RH  068%=      5-min Rain = 0
KST2 130651Z 12008KT 01/M04 A3033 RMK A01 T00101042  RH  068%=      5-min Rain = 0
KST2 130652Z 13008KT 01/M04 A3033 RMK A01 T00101042  RH  068%=      5-min Rain = 0
KST2 130653Z 13008KT 01/M04 A3033 RMK A01 T00101043  RH  068%=      5-min Rain = 0
KST2 130654Z 13007KT 01/M04 A3033 RMK A01 T00091043  RH  068%=      5-min Rain = 0
KST2 130655Z 13007KT 01/M04 A3033 RMK A01 T00091044  RH  068%=      5-min Rain = 0
KST2 130656Z 13007KT 01/M04 A3033 RMK A01 T00081044  RH  068%=      5-min Rain = 0
KST2 130657Z 13007KT 01/M04 A3033 RMK A01 T00081044  RH  068%=      5-min Rain = 0
KST2 130658Z 13007KT 01/M04 A3033 RMK A01 T00081044  RH  068%=      5-min Rain = 0
KST2 130659Z 13007KT 01/M05 A3033 RMK A01 T00081045  RH  068%=      5-min Rain = 0
KST2 130700Z 13007KT 01/M04 A3033 RMK A01 T00071043  RH  069%=      5-min Rain = 0
KST2 130701Z 13007KT 01/M04 A3033 RMK A01 T00071044  RH  068%=      5-min Rain = 0
KST2 130702Z 13007KT 01/M04 A3033 RMK A01 T00071043  RH  069%=      5-min Rain = 0
KST2 130703Z 13007KT 01/M04 A3033 RMK A01 T00071043  RH  069%=      5-min Rain = 0
KST2 130704Z 13007KT 01/M04 A3033 RMK A01 T00071043  RH  069%=      5-min Rain = 0
KST2 130705Z 13006KT 01/M04 A3033 RMK A01 T00071043  RH  069%=      5-min Rain = 0
KST2 130706Z 13006KT 01/M04 A3033 RMK A01 T00061044  RH  069%=      5-min Rain = 0
KST2 130707Z 13007KT 01/M04 A3033 RMK A01 T00061044  RH  069%=      5-min Rain = 0
KST2 130708Z 13006KT 01/M05 A3033 RMK A01 T00061045  RH  069%=      5-min Rain = 0
KST2 130709Z 13007KT 01/M05 A3033 RMK A01 T00051046  RH  069%=      5-min Rain = 0
KST2 130710Z 13006KT 01/M05 A3033 RMK A01 T00051045  RH  069%=      5-min Rain = 0
KST2 130711Z 13006KT 01/M05 A3033 RMK A01 T00051046  RH  069%=      5-min Rain = 0
KST2 130712Z 13007KT 01/M05 A3033 RMK A01 T00051045  RH  069%=      5-min Rain = 0
KST2 130713Z 13006KT 00/M05 A3033 RMK A01 T00041045  RH  070%=      5-min Rain = 0
KST2 130714Z 13006KT 00/M05 A3033 RMK A01 T00041045  RH  070%=      5-min Rain = 0
KST2 130715Z 13005KT 00/M05 A3033 RMK A01 T00041045  RH  070%=      5-min Rain = 0
KST2 130716Z 12005KT 00/M05 A3033 RMK A01 T00041045  RH  070%=      5-min Rain = 0
KST2 130717Z 12005KT 00/M05 A3033 RMK A01 T00031046  RH  070%=      5-min Rain = 0
KST2 130718Z 12005KT 00/M05 A3033 RMK A01 T00031046  RH  070%=      5-min Rain = 0
KST2 130719Z 12005KT 00/M05 A3033 RMK A01 T00021047  RH  070%=      5-min Rain = 0
KST2 130720Z 12005KT 00/M05 A3033 RMK A01 T00021046  RH  070%=      5-min Rain = 0
KST2 130721Z 12005KT 00/M05 A3033 RMK A01 T00021045  RH  071%=      5-min Rain = 0
KST2 130722Z 12005KT 00/M05 A3033 RMK A01 T00021046  RH  070%=      5-min Rain = 0
KST2 130723Z 13006KT 00/M05 A3033 RMK A01 T00021046  RH  070%=      5-min Rain = 0
KST2 130724Z 12006KT 00/M05 A3033 RMK A01 T00011046  RH  071%=      5-min Rain = 0
KST2 130725Z 12005KT 00/M05 A3033 RMK A01 T00011046  RH  071%=      5-min Rain = 0
KST2 130726Z 12005KT 00/M05 A3033 RMK A01 T00011046  RH  071%=      5-min Rain = 0
KST2 130727Z 12005KT 00/M05 A3033 RMK A01 T00011046  RH  071%=      5-min Rain = 0
KST2 130728Z 12005KT 00/05 A3033 RMK A01 T00000-47  RH  071%=      5-min Rain = 0
KST2 130729Z 12005KT 00/05 A3033 RMK A01 T00-00-47  RH  071%=      5-min Rain = 0
KST2 130730Z 12005KT 00/05 A3033 RMK A01 T00-00-47  RH  071%=      5-min Rain = 0
KST2 130731Z 11005KT M00/M05 A3033 RMK A01 T10011046  RH  072%=      5-min Rain = 0
KST2 130732Z 11005KT M00/M05 A3033 RMK A01 T10011046  RH  072%=      5-min Rain = 0
KST2 130733Z 11005KT M00/M05 A3033 RMK A01 T10011045  RH  072%=      5-min Rain = 0
KST2 130734Z 11005KT 00/04 A3033 RMK A01 T00-00-44  RH  072%=      5-min Rain = 0
KST2 130735Z 11005KT M00/M05 A3033 RMK A01 T10011046  RH  072%=      5-min Rain = 0
KST2 130736Z 11005KT M00/M05 A3033 RMK A01 T10011046  RH  071%=      5-min Rain = 0
KST2 130737Z 11006KT M00/M05 A3033 RMK A01 T10011046  RH  072%=      5-min Rain = 0
KST2 130738Z 11006KT M00/M04 A3033 RMK A01 T10011044  RH  073%=      5-min Rain = 0
KST2 130739Z 11006KT M00/M04 A3033 RMK A01 T10011044  RH  073%=      5-min Rain = 0
KST2 130740Z 11005KT M00/M05 A3033 RMK A01 T10011045  RH  072%=      5-min Rain = 0
KST2 130741Z 11005KT M00/M05 A3032 RMK A01 T10011045  RH  072%=      5-min Rain = 0
KST2 130742Z 11006KT M00/M04 A3032 RMK A01 T10011044  RH  072%=      5-min Rain = 0
KST2 130743Z 11006KT M00/M04 A3032 RMK A01 T10011044  RH  073%=      5-min Rain = 0
KST2 130744Z 11006KT M00/M04 A3032 RMK A01 T10011044  RH  073%=      5-min Rain = 0
KST2 130745Z 11006KT M00/M04 A3032 RMK A01 T10011044  RH  073%=      5-min Rain = 0
KST2 130746Z 11005KT M00/M04 A3032 RMK A01 T10011044  RH  072%=      5-min Rain = 0
KST2 130747Z 11006KT M00/M05 A3032 RMK A01 T10011045  RH  072%=      5-min Rain = 0
KST2 130748Z 11005KT M00/M05 A3032 RMK A01 T10011045  RH  072%=      5-min Rain = 0
KST2 130749Z 11005KT M00/M05 A3032 RMK A01 T10021046  RH  072%=      5-min Rain = 0
KST2 130750Z 11005KT M00/M05 A3032 RMK A01 T10021045  RH  073%=      5-min Rain = 0
KST2 130751Z 11005KT M00/M05 A3032 RMK A01 T10021045  RH  072%=      5-min Rain = 0
KST2 130752Z 10005KT M00/M05 A3032 RMK A01 T10021045  RH  073%=      5-min Rain = 0
KST2 130753Z 11005KT M00/M04 A3032 RMK A01 T10011044  RH  073%=      5-min Rain = 0
KST2 130754Z 11005KT M00/M04 A3032 RMK A01 T10021044  RH  073%=      5-min Rain = 0
KST2 130755Z 10005KT M00/M04 A3032 RMK A01 T10021044  RH  073%=      5-min Rain = 0
KST2 130756Z 10005KT M00/M05 A3032 RMK A01 T10021046  RH  072%=      5-min Rain = 0
KST2 130757Z 10005KT M00/M05 A3032 RMK A01 T10021045  RH  073%=      5-min Rain = 0
KST2 130758Z 10005KT M00/M04 A3032 RMK A01 T10021044  RH  073%=      5-min Rain = 0
KST2 130759Z 10005KT M00/M05 A3032 RMK A01 T10021045  RH  073%=      5-min Rain = 0
KST2 130800Z 11006KT M00/M05 A3032 RMK A01 T10031045  RH  073%=      5-min Rain = 0
KST2 130801Z 11006KT M00/M05 A3032 RMK A01 T10031045  RH  073%=      5-min Rain = 0
KST2 130802Z 10005KT M00/M05 A3032 RMK A01 T10031045  RH  073%=      5-min Rain = 0
KST2 130803Z 11005KT M00/M05 A3032 RMK A01 T10041045  RH  074%=      5-min Rain = 0
KST2 130804Z 11006KT M00/M05 A3032 RMK A01 T10041046  RH  073%=      5-min Rain = 0
KST2 130805Z 11006KT M00/M05 A3032 RMK A01 T10041047  RH  073%=      5-min Rain = 0
KST2 130806Z 11006KT M01/M05 A3032 RMK A01 T10051048  RH  072%=      5-min Rain = 0
KST2 130807Z 11007KT M01/M05 A3032 RMK A01 T10061050  RH  072%=      5-min Rain = 0
KST2 130808Z 11007KT M01/M05 A3032 RMK A01 T10071049  RH  073%=      5-min Rain = 0
KST2 130809Z 11007KT M01/M05 A3032 RMK A01 T10071049  RH  073%=      5-min Rain = 0
KST2 130810Z 11007KT M01/M05 A3032 RMK A01 T10071049  RH  073%=      5-min Rain = 0
KST2 130811Z 11007KT M01/M05 A3032 RMK A01 T10071050  RH  073%=      5-min Rain = 0
KST2 130812Z 11007KT M01/M05 A3032 RMK A01 T10081050  RH  073%=      5-min Rain = 0
KST2 130813Z 11007KT M01/M05 A3032 RMK A01 T10081050  RH  073%=      5-min Rain = 0
KST2 130814Z 11007KT M01/M05 A3032 RMK A01 T10081049  RH  074%=      5-min Rain = 0
KST2 130815Z 11007KT M01/M05 A3032 RMK A01 T10081049  RH  074%=      5-min Rain = 0
KST2 130816Z 12007KT M01/M05 A3032 RMK A01 T10081050  RH  074%=      5-min Rain = 0
KST2 130817Z 12006KT M01/M05 A3032 RMK A01 T10081049  RH  074%=      5-min Rain = 0
KST2 130818Z 12007KT M01/M05 A3032 RMK A01 T10081049  RH  074%=      5-min Rain = 0
KST2 130819Z 12007KT M01/M05 A3032 RMK A01 T10081049  RH  074%=      5-min Rain = 0
KST2 130820Z 12006KT M01/M05 A3032 RMK A01 T10081049  RH  074%=      5-min Rain = 0
KST2 130821Z 12006KT M01/M05 A3032 RMK A01 T10081050  RH  074%=      5-min Rain = 0
KST2 130822Z 12006KT M01/M05 A3032 RMK A01 T10081049  RH  074%=      5-min Rain = 0
KST2 130823Z 12006KT M01/M05 A3032 RMK A01 T10081050  RH  073%=      5-min Rain = 0
KST2 130824Z 12006KT M01/M05 A3032 RMK A01 T10081050  RH  073%=      5-min Rain = 0
KST2 130825Z 12006KT M01/M05 A3032 RMK A01 T10081050  RH  073%=      5-min Rain = 0
KST2 130826Z 12006KT M01/M05 A3032 RMK A01 T10081049  RH  074%=      5-min Rain = 0
KST2 130827Z 12006KT M01/M05 A3032 RMK A01 T10081048  RH  074%=      5-min Rain = 0
KST2 130828Z 12007KT M01/M05 A3032 RMK A01 T10081048  RH  074%=      5-min Rain = 0
KST2 130829Z 12007KT M01/M05 A3032 RMK A01 T10081048  RH  074%=      5-min Rain = 0
KST2 130830Z 12007KT M01/M05 A3032 RMK A01 T10081049  RH  074%=      5-min Rain = 0
KST2 130831Z 12006KT M01/M05 A3032 RMK A01 T10091050  RH  074%=      5-min Rain = 0
KST2 130832Z 12006KT M01/M05 A3032 RMK A01 T10091050  RH  074%=      5-min Rain = 0
KST2 130833Z 12006KT M01/M05 A3032 RMK A01 T10091050  RH  074%=      5-min Rain = 0
KST2 130834Z 12006KT M01/M05 A3032 RMK A01 T10091049  RH  074%=      5-min Rain = 0
KST2 130835Z 12006KT M01/M05 A3031 RMK A01 T10091049  RH  075%=      5-min Rain = 0
KST2 130836Z 12006KT M01/M05 A3032 RMK A01 T10091048  RH  075%=      5-min Rain = 0
KST2 130837Z 12006KT M01/M05 A3032 RMK A01 T10091049  RH  074%=      5-min Rain = 0
KST2 130838Z 12006KT M01/M05 A3032 RMK A01 T10091049  RH  074%=      5-min Rain = 0
KST2 130839Z 12006KT M01/M05 A3032 RMK A01 T10091049  RH  075%=      5-min Rain = 0
KST2 130840Z 12006KT M01/M05 A3032 RMK A01 T10091048  RH  075%=      5-min Rain = 0
KST2 130841Z 12006KT M01/M05 A3032 RMK A01 T10091047  RH  075%=      5-min Rain = 0
KST2 130842Z 12006KT M01/M05 A3032 RMK A01 T10091048  RH  075%=      5-min Rain = 0
KST2 130843Z 12006KT M01/M05 A3032 RMK A01 T10091048  RH  075%=      5-min Rain = 0
KST2 130844Z 12006KT M01/M05 A3032 RMK A01 T10091048  RH  075%=      5-min Rain = 0
KST2 130845Z 12007KT M01/M05 A3032 RMK A01 T10091049  RH  075%=      5-min Rain = 0
KST2 130846Z 12007KT M01/M05 A3032 RMK A01 T10091049  RH  074%=      5-min Rain = 0
KST2 130847Z 12007KT M01/M05 A3032 RMK A01 T10101049  RH  075%=      5-min Rain = 0
KST2 130848Z 12007KT M01/M05 A3032 RMK A01 T10101048  RH  075%=      5-min Rain = 0
KST2 130849Z 12007KT M01/M05 A3032 RMK A01 T10101049  RH  075%=      5-min Rain = 0
KST2 130850Z 11007KT M01/M05 A3032 RMK A01 T10101049  RH  075%=      5-min Rain = 0
KST2 130851Z 11007KT M01/M05 A3032 RMK A01 T10101049  RH  075%=      5-min Rain = 0
KST2 130852Z 11007KT M01/M05 A3031 RMK A01 T10101048  RH  076%=      5-min Rain = 0
KST2 130853Z 12007KT M01/M05 A3031 RMK A01 T10101045  RH  077%=      5-min Rain = 0
KST2 130854Z 11007KT M01/M04 A3031 RMK A01 T10081043  RH  077%=      5-min Rain = 0
KST2 130855Z 12007KT M01/M04 A3031 RMK A01 T10081043  RH  077%=      5-min Rain = 0
KST2 130856Z 11007KT M01/M04 A3031 RMK A01 T10081044  RH  077%=      5-min Rain = 0
KST2 130857Z 11007KT M01/M04 A3031 RMK A01 T10071044  RH  076%=      5-min Rain = 0
KST2 130858Z 11006KT M01/M05 A3031 RMK A01 T10071045  RH  076%=      5-min Rain = 0
KST2 130859Z 11006KT M01/M05 A3031 RMK A01 T10081046  RH  076%=      5-min Rain = 0
KST2 130900Z 10005KT M01/M05 A3031 RMK A01 T10091047  RH  075%=      5-min Rain = 0
KST2 130901Z 10005KT M01/M05 A3031 RMK A01 T10091048  RH  075%=      5-min Rain = 0
KST2 130902Z 10005KT M01/M05 A3031 RMK A01 T10091046  RH  076%=      5-min Rain = 0
KST2 130903Z 10005KT M01/M05 A3031 RMK A01 T10091045  RH  077%=      5-min Rain = 0
KST2 130904Z 10005KT M01/M04 A3031 RMK A01 T10091044  RH  077%=      5-min Rain = 0
KST2 130905Z 10005KT M01/M04 A3031 RMK A01 T10091044  RH  077%=      5-min Rain = 0
KST2 130906Z 10005KT M01/M04 A3031 RMK A01 T10091044  RH  077%=      5-min Rain = 0
KST2 130907Z 10005KT M01/M04 A3031 RMK A01 T10101044  RH  078%=      5-min Rain = 0
KST2 130908Z 10005KT M01/M05 A3031 RMK A01 T10101045  RH  077%=      5-min Rain = 0
KST2 130909Z 11006KT M01/M05 A3031 RMK A01 T10101045  RH  077%=      5-min Rain = 0
KST2 130910Z 11006KT M01/M05 A3031 RMK A01 T10111047  RH  077%=      5-min Rain = 0
KST2 130911Z 11006KT M01/M05 A3031 RMK A01 T10121048  RH  076%=      5-min Rain = 0
KST2 130912Z 11006KT M01/M05 A3031 RMK A01 T10121049  RH  076%=      5-min Rain = 0
KST2 130913Z 11006KT M01/M05 A3031 RMK A01 T10121047  RH  077%=      5-min Rain = 0
KST2 130914Z 11005KT M01/M05 A3031 RMK A01 T10121047  RH  077%=      5-min Rain = 0
KST2 130915Z 11005KT M01/M05 A3031 RMK A01 T10121047  RH  077%=      5-min Rain = 0
KST2 130916Z 11005KT M01/M05 A3031 RMK A01 T10121048  RH  077%=      5-min Rain = 0
KST2 130917Z 12005KT M01/M05 A3031 RMK A01 T10121048  RH  077%=      5-min Rain = 0
KST2 130918Z 12005KT M01/M05 A3031 RMK A01 T10121047  RH  077%=      5-min Rain = 0
KST2 130919Z 12005KT M01/M05 A3031 RMK A01 T10121047  RH  077%=      5-min Rain = 0
KST2 130920Z 12005KT M01/M05 A3031 RMK A01 T10121047  RH  077%=      5-min Rain = 0
KST2 130921Z 12005KT M01/M05 A3031 RMK A01 T10121047  RH  077%=      5-min Rain = 0
KST2 130922Z 13005KT M01/M05 A3031 RMK A01 T10131049  RH  076%=      5-min Rain = 0
KST2 130923Z 13005KT M01/M05 A3031 RMK A01 T10141050  RH  076%=      5-min Rain = 0
KST2 130924Z 13005KT M01/M05 A3031 RMK A01 T10141052  RH  075%=      5-min Rain = 0
KST2 130925Z 13005KT M02/M05 A3031 RMK A01 T10151053  RH  075%=      5-min Rain = 0
KST2 130926Z 13005KT M02/M05 A3031 RMK A01 T10161054  RH  075%=      5-min Rain = 0
KST2 130927Z 12004KT M02/M06 A3031 RMK A01 T10171055  RH  075%=      5-min Rain = 0
KST2 130928Z 12004KT M02/M05 A3031 RMK A01 T10171054  RH  076%=      5-min Rain = 0
KST2 130929Z 12003KT M02/M05 A3031 RMK A01 T10171053  RH  076%=      5-min Rain = 0
KST2 130930Z 12003KT M02/M05 A3032 RMK A01 T10171052  RH  077%=      5-min Rain = 0
KST2 130931Z 12003KT M02/M05 A3032 RMK A01 T10171051  RH  077%=      5-min Rain = 0
KST2 130932Z 11003KT M02/M05 A3032 RMK A01 T10171052  RH  077%=      5-min Rain = 0
KST2 130933Z 11004KT M02/M05 A3032 RMK A01 T10171052  RH  077%=      5-min Rain = 0
KST2 130934Z 11004KT M02/M05 A3032 RMK A01 T10171051  RH  078%=      5-min Rain = 0
KST2 130935Z 12004KT M02/M05 A3032 RMK A01 T10161050  RH  078%=      5-min Rain = 0
KST2 130936Z 13004KT M02/M05 A3032 RMK A01 T10161049  RH  078%=      5-min Rain = 0
KST2 130937Z 13004KT M02/M05 A3033 RMK A01 T10161048  RH  078%=      5-min Rain = 0
KST2 130938Z 13004KT M02/M05 A3033 RMK A01 T10151047  RH  079%=      5-min Rain = 0
KST2 130939Z 13003KT M02/M05 A3033 RMK A01 T10151045  RH  080%=      5-min Rain = 0
KST2 130940Z 12003KT M01/M04 A3033 RMK A01 T10141043  RH  081%=      5-min Rain = 0
KST2 130941Z 12004KT M01/M04 A3032 RMK A01 T10131041  RH  082%=      5-min Rain = 0
KST2 130942Z 11005KT M01/M04 A3032 RMK A01 T10121040  RH  082%=      5-min Rain = 0
KST2 130943Z 10005KT M01/M04 A3032 RMK A01 T10121040  RH  081%=      5-min Rain = 0
KST2 130944Z 10004KT M01/M04 A3032 RMK A01 T10121043  RH  079%=      5-min Rain = 0
KST2 130945Z 10001KT M01/M05 A3032 RMK A01 T10121045  RH  078%=      5-min Rain = 0
KST2 130946Z 30002KT M01/M05 A3032 RMK A01 T10141053  RH  074%=      5-min Rain = 0
KST2 130947Z 32001KT M02/M05 A3033 RMK A01 T10151053  RH  075%=      5-min Rain = 0
KST2 130948Z 12001KT M02/M05 A3033 RMK A01 T10151045  RH  080%=      5-min Rain = 0
KST2 130949Z 11003KT M01/M04 A3032 RMK A01 T10131039  RH  082%=      5-min Rain = 0
KST2 130950Z 12004KT M01/M04 A3032 RMK A01 T10111037  RH  082%=      5-min Rain = 0
KST2 130951Z 12005KT M01/M04 A3032 RMK A01 T10091036  RH  082%=      5-min Rain = 0
KST2 130952Z 12007KT M01/M04 A3032 RMK A01 T10081039  RH  080%=      5-min Rain = 0
KST2 130953Z 13006KT M01/M04 A3032 RMK A01 T10071037  RH  080%=      5-min Rain = 0
KST2 130954Z 13006KT M00/M04 A3033 RMK A01 T10041035  RH  080%=      5-min Rain = 0
KST2 130955Z 12005KT M00/M04 A3032 RMK A01 T10041036  RH  079%=      5-min Rain = 0
KST2 130956Z 14004KT M00/M04 A3033 RMK A01 T10031035  RH  079%=      5-min Rain = 0
KST2 130957Z 13004KT M00/M04 A3033 RMK A01 T10031036  RH  078%=      5-min Rain = 0
KST2 130958Z 13004KT M00/M04 A3033 RMK A01 T10031038  RH  077%=      5-min Rain = 0
KST2 130959Z 13004KT M00/M04 A3033 RMK A01 T10021037  RH  077%=      5-min Rain = 0
KST2 131000Z 14003KT M00/M04 A3033 RMK A01 T10021036  RH  078%=      5-min Rain = 0
KST2 131001Z 13002KT M00/M04 A3033 RMK A01 T10011037  RH  077%=      5-min Rain = 0
KST2 131002Z 11001KT M00/M04 A3033 RMK A01 T10011038  RH  076%=      5-min Rain = 0
KST2 131003Z 11002KT M00/M04 A3033 RMK A01 T10011038  RH  076%=      5-min Rain = 0
KST2 131004Z 11001KT M00/M04 A3033 RMK A01 T10011038  RH  076%=      5-min Rain = 0
KST2 131005Z 11002KT M00/M04 A3033 RMK A01 T10011039  RH  075%=      5-min Rain = 0
KST2 131006Z 12002KT M00/M04 A3033 RMK A01 T10011040  RH  075%=      5-min Rain = 0
KST2 131007Z 13003KT M00/M04 A3033 RMK A01 T10011040  RH  075%=      5-min Rain = 0
KST2 131008Z 13003KT 00/04 A3033 RMK A01 T00-00-39  RH  075%=      5-min Rain = 0
KST2 131009Z 12003KT 00/04 A3033 RMK A01 T00000-38  RH  075%=      5-min Rain = 0
KST2 131010Z 12003KT 00/M04 A3033 RMK A01 T00011038  RH  075%=      5-min Rain = 0
KST2 131011Z 12003KT 00/M04 A3033 RMK A01 T00021036  RH  076%=      5-min Rain = 0
KST2 131012Z 12003KT 00/M04 A3033 RMK A01 T00031035  RH  075%=      5-min Rain = 0
KST2 131013Z 12004KT 00/M04 A3032 RMK A01 T00041036  RH  075%=      5-min Rain = 0
KST2 131014Z 12005KT 01/M04 A3032 RMK A01 T00051035  RH  075%=      5-min Rain = 0
KST2 131015Z 12004KT 01/M04 A3032 RMK A01 T00051035  RH  075%=      5-min Rain = 0
KST2 131016Z 12005KT 01/M04 A3032 RMK A01 T00061035  RH  074%=      5-min Rain = 0
KST2 131017Z 12005KT 01/M04 A3032 RMK A01 T00051035  RH  074%=      5-min Rain = 0
KST2 131018Z 12005KT 01/M04 A3032 RMK A01 T00061035  RH  074%=      5-min Rain = 0
KST2 131019Z 12004KT 01/M03 A3032 RMK A01 T00061034  RH  075%=      5-min Rain = 0
KST2 131020Z 12004KT 01/M03 A3032 RMK A01 T00071032  RH  075%=      5-min Rain = 0
KST2 131021Z 12005KT 01/M03 A3032 RMK A01 T00071032  RH  075%=      5-min Rain = 0
KST2 131022Z 12005KT 01/M03 A3032 RMK A01 T00081032  RH  075%=      5-min Rain = 0
KST2 131023Z 12004KT 01/M03 A3032 RMK A01 T00081033  RH  074%=      5-min Rain = 0
KST2 131024Z 12005KT 01/M03 A3032 RMK A01 T00081032  RH  075%=      5-min Rain = 0
KST2 131025Z 12004KT 01/M03 A3032 RMK A01 T00081033  RH  074%=      5-min Rain = 0
KST2 131026Z 12005KT 01/M03 A3032 RMK A01 T00081033  RH  074%=      5-min Rain = 0
KST2 131027Z 12004KT 01/M03 A3032 RMK A01 T00091031  RH  075%=      5-min Rain = 0
KST2 131028Z 12004KT 01/M03 A3032 RMK A01 T00091031  RH  074%=      5-min Rain = 0
KST2 131029Z 12004KT 01/M03 A3032 RMK A01 T00091032  RH  074%=      5-min Rain = 0
KST2 131030Z 12005KT 01/M03 A3032 RMK A01 T00091032  RH  074%=      5-min Rain = 0
KST2 131031Z 12004KT 01/M03 A3032 RMK A01 T00101032  RH  074%=      5-min Rain = 0
KST2 131032Z 11004KT 01/M03 A3032 RMK A01 T00101032  RH  074%=      5-min Rain = 0
KST2 131033Z 11004KT 01/M03 A3032 RMK A01 T00101031  RH  074%=      5-min Rain = 0
KST2 131034Z 11004KT 01/M03 A3032 RMK A01 T00101031  RH  074%=      5-min Rain = 0
KST2 131035Z 12004KT 01/M03 A3032 RMK A01 T00101031  RH  074%=      5-min Rain = 0
KST2 131036Z 11004KT 01/M03 A3032 RMK A01 T00111030  RH  074%=      5-min Rain = 0
KST2 131037Z 11003KT 01/M03 A3032 RMK A01 T00111030  RH  074%=      5-min Rain = 0
KST2 131038Z 11003KT 01/M03 A3032 RMK A01 T00111030  RH  074%=      5-min Rain = 0
KST2 131039Z 11003KT 01/M03 A3032 RMK A01 T00111029  RH  074%=      5-min Rain = 0
KST2 131040Z 12003KT 01/M03 A3032 RMK A01 T00111029  RH  074%=      5-min Rain = 0
KST2 131041Z 13003KT 01/M03 A3033 RMK A01 T00121029  RH  074%=      5-min Rain = 0
KST2 131042Z 11003KT 01/M03 A3032 RMK A01 T00121029  RH  074%=      5-min Rain = 0
KST2 131043Z 11003KT 01/M03 A3032 RMK A01 T00121028  RH  074%=      5-min Rain = 0
KST2 131044Z 11002KT 01/M03 A3032 RMK A01 T00121029  RH  074%=      5-min Rain = 0
KST2 131045Z 11002KT 01/M03 A3032 RMK A01 T00131030  RH  073%=      5-min Rain = 0
KST2 131046Z 10002KT 01/M03 A3032 RMK A01 T00131029  RH  074%=      5-min Rain = 0
KST2 131047Z 07002KT 01/M03 A3032 RMK A01 T00141029  RH  073%=      5-min Rain = 0
KST2 131048Z 08002KT 01/M03 A3032 RMK A01 T00131029  RH  073%=      5-min Rain = 0
KST2 131049Z 08002KT 01/M03 A3032 RMK A01 T00131029  RH  074%=      5-min Rain = 0
KST2 131050Z 08002KT 01/M03 A3032 RMK A01 T00131028  RH  074%=      5-min Rain = 0
KST2 131051Z 07003KT 01/M03 A3032 RMK A01 T00131028  RH  074%=      5-min Rain = 0
KST2 131052Z 06003KT 01/M03 A3032 RMK A01 T00131029  RH  074%=      5-min Rain = 0
KST2 131053Z 07003KT 01/M03 A3032 RMK A01 T00131029  RH  074%=      5-min Rain = 0
KST2 131054Z 07003KT 01/M03 A3032 RMK A01 T00131029  RH  074%=      5-min Rain = 0
KST2 131055Z 06003KT 01/M03 A3032 RMK A01 T00131029  RH  074%=      5-min Rain = 0
KST2 131056Z 07003KT 01/M03 A3032 RMK A01 T00131029  RH  074%=      5-min Rain = 0
KST2 131057Z 07003KT 01/M03 A3032 RMK A01 T00121029  RH  074%=      5-min Rain = 0
KST2 131058Z 07003KT 01/M03 A3032 RMK A01 T00121030  RH  074%=      5-min Rain = 0
KST2 131059Z 07003KT 01/M03 A3032 RMK A01 T00121030  RH  074%=      5-min Rain = 0
KST2 131100Z 09002KT 01/M03 A3032 RMK A01 T00121029  RH  074%=      5-min Rain = 0
KST2 131101Z 08003KT 01/M03 A3032 RMK A01 T00121029  RH  074%=      5-min Rain = 0
KST2 131102Z 08003KT 01/M03 A3032 RMK A01 T00121029  RH  074%=      5-min Rain = 0
KST2 131103Z 08003KT 01/M03 A3032 RMK A01 T00131029  RH  073%=      5-min Rain = 0
KST2 131104Z 08003KT 01/M03 A3032 RMK A01 T00131029  RH  073%=      5-min Rain = 0
KST2 131105Z 08003KT 01/M03 A3032 RMK A01 T00131029  RH  073%=      5-min Rain = 0
KST2 131106Z 08003KT 01/M03 A3032 RMK A01 T00141028  RH  074%=      5-min Rain = 0
KST2 131107Z 07003KT 01/M03 A3032 RMK A01 T00131028  RH  074%=      5-min Rain = 0
KST2 131108Z 08003KT 01/M03 A3032 RMK A01 T00141028  RH  074%=      5-min Rain = 0
KST2 131109Z 07003KT 01/M03 A3032 RMK A01 T00141027  RH  074%=      5-min Rain = 0
KST2 131110Z 07003KT 01/M03 A3032 RMK A01 T00141027  RH  074%=      5-min Rain = 0
KST2 131111Z 07003KT 01/M03 A3032 RMK A01 T00141028  RH  074%=      5-min Rain = 0
KST2 131112Z 07003KT 02/M03 A3032 RMK A01 T00151028  RH  073%=      5-min Rain = 0
KST2 131113Z 08004KT 02/M03 A3032 RMK A01 T00151028  RH  073%=      5-min Rain = 0
KST2 131114Z 08004KT 02/M03 A3032 RMK A01 T00151028  RH  073%=      5-min Rain = 0
KST2 131115Z 08004KT 02/M03 A3032 RMK A01 T00151028  RH  073%=      5-min Rain = 0
KST2 131116Z 08004KT 02/M03 A3032 RMK A01 T00151028  RH  073%=      5-min Rain = 0
KST2 131117Z 09004KT 02/M03 A3032 RMK A01 T00151028  RH  073%=      5-min Rain = 0
KST2 131118Z 08004KT 02/M03 A3032 RMK A01 T00151028  RH  073%=      5-min Rain = 0
KST2 131119Z 08004KT 02/M03 A3032 RMK A01 T00151029  RH  073%=      5-min Rain = 0
KST2 131120Z 09004KT 02/M03 A3032 RMK A01 T00151029  RH  073%=      5-min Rain = 0
KST2 131121Z 08004KT 02/M03 A3032 RMK A01 T00151028  RH  073%=      5-min Rain = 0
KST2 131122Z 09004KT 02/M03 A3032 RMK A01 T00151028  RH  073%=      5-min Rain = 0
KST2 131123Z 09004KT 02/M03 A3032 RMK A01 T00161028  RH  073%=      5-min Rain = 0
KST2 131124Z 09004KT 02/M03 A3032 RMK A01 T00161028  RH  073%=      5-min Rain = 0
KST2 131125Z 08004KT 02/M03 A3032 RMK A01 T00161028  RH  073%=      5-min Rain = 0
KST2 131126Z 09004KT 02/M03 A3032 RMK A01 T00171028  RH  072%=      5-min Rain = 0
KST2 131127Z 10004KT 02/M03 A3032 RMK A01 T00171027  RH  072%=      5-min Rain = 0
KST2 131128Z 10003KT 02/M03 A3032 RMK A01 T00171027  RH  072%=      5-min Rain = 0
KST2 131129Z 09004KT 02/M03 A3032 RMK A01 T00181027  RH  072%=      5-min Rain = 0
KST2 131130Z 10004KT 02/M03 A3032 RMK A01 T00191026  RH  072%=      5-min Rain = 0
KST2 131131Z 09004KT 02/M03 A3032 RMK A01 T00191026  RH  072%=      5-min Rain = 0
KST2 131132Z 08003KT 02/M03 A3032 RMK A01 T00191026  RH  072%=      5-min Rain = 0
KST2 131133Z 09004KT 02/M03 A3032 RMK A01 T00201026  RH  072%=      5-min Rain = 0
KST2 131134Z 10003KT 02/M03 A3032 RMK A01 T00201025  RH  072%=      5-min Rain = 0
KST2 131135Z 11003KT 02/M03 A3032 RMK A01 T00211025  RH  071%=      5-min Rain = 0
KST2 131136Z 11003KT 02/M03 A3033 RMK A01 T00211025  RH  071%=      5-min Rain = 0
KST2 131137Z 12003KT 02/M03 A3033 RMK A01 T00211025  RH  071%=      5-min Rain = 0
KST2 131138Z 11003KT 02/M03 A3033 RMK A01 T00221025  RH  071%=      5-min Rain = 0
KST2 131139Z 11003KT 02/M03 A3033 RMK A01 T00221025  RH  071%=      5-min Rain = 0
KST2 131140Z 09002KT 02/M03 A3033 RMK A01 T00221025  RH  071%=      5-min Rain = 0
KST2 131141Z 11002KT 02/M03 A3033 RMK A01 T00221025  RH  071%=      5-min Rain = 0
KST2 131142Z 11002KT 02/M03 A3033 RMK A01 T00231025  RH  071%=      5-min Rain = 0
KST2 131143Z 10002KT 02/M03 A3033 RMK A01 T00231025  RH  071%=      5-min Rain = 0
KST2 131144Z 10002KT 02/M03 A3033 RMK A01 T00231025  RH  070%=      5-min Rain = 0
KST2 131145Z 10002KT 02/M02 A3033 RMK A01 T00241024  RH  070%=      5-min Rain = 0
KST2 131146Z 11002KT 02/M02 A3033 RMK A01 T00241024  RH  070%=      5-min Rain = 0
KST2 131147Z 11002KT 03/M02 A3033 RMK A01 T00251024  RH  070%=      5-min Rain = 0
KST2 131148Z 11002KT 03/M02 A3033 RMK A01 T00251024  RH  070%=      5-min Rain = 0
KST2 131149Z 12002KT 03/M02 A3033 RMK A01 T00261024  RH  070%=      5-min Rain = 0
KST2 131150Z 12002KT 03/M02 A3033 RMK A01 T00261023  RH  070%=      5-min Rain = 0
KST2 131151Z 13002KT 03/M02 A3033 RMK A01 T00271023  RH  069%=      5-min Rain = 0
KST2 131152Z 13003KT 03/M02 A3033 RMK A01 T00271023  RH  069%=      5-min Rain = 0
KST2 131153Z 13003KT 03/M02 A3033 RMK A01 T00281022  RH  070%=      5-min Rain = 0
KST2 131154Z 13003KT 03/M02 A3033 RMK A01 T00281022  RH  070%=      5-min Rain = 0
KST2 131155Z 13003KT 03/M02 A3033 RMK A01 T00281022  RH  069%=      5-min Rain = 0
KST2 131156Z 13003KT 03/M02 A3033 RMK A01 T00291021  RH  070%=      5-min Rain = 0
KST2 131157Z 13003KT 03/M02 A3033 RMK A01 T00291021  RH  070%=      5-min Rain = 0
KST2 131158Z 13003KT 03/M02 A3033 RMK A01 T00301021  RH  069%=      5-min Rain = 0
KST2 131159Z 13003KT 03/M02 A3033 RMK A01 T00301021  RH  069%=      5-min Rain = 0
KST2 131200Z 13003KT 03/M02 A3033 RMK A01 T00311021  RH  069%=      5-min Rain = 0
KST2 131201Z 12002KT 03/M02 A3033 RMK A01 T00311019  RH  070%=      5-min Rain = 0
KST2 131202Z 13002KT 03/M02 A3033 RMK A01 T00311020  RH  069%=      5-min Rain = 0
KST2 131203Z 14002KT 03/M02 A3033 RMK A01 T00321020  RH  069%=      5-min Rain = 0
KST2 131204Z 13001KT 03/M02 A3033 RMK A01 T00321020  RH  069%=      5-min Rain = 0
KST2 131205Z 12002KT 03/M02 A3033 RMK A01 T00321020  RH  069%=      5-min Rain = 0
KST2 131206Z 15001KT 03/M02 A3033 RMK A01 T00321019  RH  069%=      5-min Rain = 0
KST2 131207Z 15002KT 03/M02 A3034 RMK A01 T00331019  RH  069%=      5-min Rain = 0
KST2 131208Z 15002KT 03/M02 A3034 RMK A01 T00331019  RH  069%=      5-min Rain = 0
KST2 131209Z 15002KT 03/M02 A3034 RMK A01 T00331019  RH  069%=      5-min Rain = 0
KST2 131210Z 16003KT 03/M02 A3034 RMK A01 T00331019  RH  069%=      5-min Rain = 0
KST2 131211Z 17003KT 03/M02 A3034 RMK A01 T00331019  RH  068%=      5-min Rain = 0
KST2 131212Z 16003KT 03/M02 A3034 RMK A01 T00341019  RH  068%=      5-min Rain = 0
KST2 131213Z 16003KT 03/M02 A3034 RMK A01 T00341019  RH  068%=      5-min Rain = 0
KST2 131214Z 17003KT 03/M02 A3034 RMK A01 T00341019  RH  068%=      5-min Rain = 0
KST2 131215Z 16002KT 03/M02 A3034 RMK A01 T00341019  RH  068%=      5-min Rain = 0
KST2 131216Z 16002KT 03/M02 A3034 RMK A01 T00341019  RH  068%=      5-min Rain = 0
KST2 131217Z 17002KT 04/M02 A3034 RMK A01 T00351018  RH  068%=      5-min Rain = 0
KST2 131218Z 17003KT 03/M02 A3034 RMK A01 T00341018  RH  068%=      5-min Rain = 0
KST2 131219Z 17002KT 04/M02 A3034 RMK A01 T00351018  RH  068%=      5-min Rain = 0
KST2 131220Z 17003KT 04/M02 A3034 RMK A01 T00351018  RH  068%=      5-min Rain = 0
KST2 131221Z 17003KT 04/M02 A3034 RMK A01 T00351018  RH  068%=      5-min Rain = 0
KST2 131222Z 17002KT 04/M02 A3034 RMK A01 T00351018  RH  068%=      5-min Rain = 0
KST2 131223Z 16003KT 04/M02 A3034 RMK A01 T00351018  RH  068%=      5-min Rain = 0
KST2 131224Z 16002KT 04/M02 A3034 RMK A01 T00361018  RH  068%=      5-min Rain = 0
KST2 131225Z 16002KT 04/M02 A3034 RMK A01 T00361018  RH  068%=      5-min Rain = 0
KST2 131226Z 17002KT 04/M02 A3034 RMK A01 T00361018  RH  067%=      5-min Rain = 0
KST2 131227Z 17002KT 04/M02 A3035 RMK A01 T00371017  RH  068%=      5-min Rain = 0
KST2 131228Z 17002KT 04/M02 A3035 RMK A01 T00371017  RH  068%=      5-min Rain = 0
KST2 131229Z 17003KT 04/M02 A3035 RMK A01 T00371017  RH  068%=      5-min Rain = 0
KST2 131230Z 17003KT 04/M02 A3035 RMK A01 T00371017  RH  068%=      5-min Rain = 0
KST2 131231Z 16002KT 04/M02 A3035 RMK A01 T00371016  RH  068%=      5-min Rain = 0
KST2 131232Z 16002KT 04/M02 A3035 RMK A01 T00371017  RH  068%=      5-min Rain = 0
KST2 131233Z 16003KT 04/M02 A3035 RMK A01 T00371016  RH  068%=      5-min Rain = 0
KST2 131234Z 16003KT 04/M02 A3035 RMK A01 T00381016  RH  068%=      5-min Rain = 0
KST2 131235Z 16003KT 04/M02 A3035 RMK A01 T00371017  RH  068%=      5-min Rain = 0
KST2 131236Z 16003KT 04/M02 A3035 RMK A01 T00381017  RH  067%=      5-min Rain = 0
KST2 131237Z 16003KT 04/M02 A3035 RMK A01 T00381017  RH  067%=      5-min Rain = 0
KST2 131238Z 16002KT 04/M02 A3035 RMK A01 T00381017  RH  067%=      5-min Rain = 0
KST2 131239Z 14002KT 04/M02 A3035 RMK A01 T00381017  RH  067%=      5-min Rain = 0
KST2 131240Z 15002KT 04/M02 A3035 RMK A01 T00381017  RH  067%=      5-min Rain = 0
KST2 131241Z 15003KT 04/M02 A3035 RMK A01 T00381017  RH  067%=      5-min Rain = 0
KST2 131242Z 15003KT 04/M02 A3035 RMK A01 T00381017  RH  067%=      5-min Rain = 0
KST2 131243Z 15003KT 04/M02 A3035 RMK A01 T00381017  RH  067%=      5-min Rain = 0
KST2 131244Z 15003KT 04/M02 A3036 RMK A01 T00381017  RH  067%=      5-min Rain = 0
KST2 131245Z 14002KT 04/M02 A3035 RMK A01 T00391016  RH  067%=      5-min Rain = 0
KST2 131246Z 14002KT 04/M02 A3035 RMK A01 T00391016  RH  067%=      5-min Rain = 0
KST2 131247Z 15004KT 04/M02 A3036 RMK A01 T00391017  RH  067%=      5-min Rain = 0
KST2 131248Z 15004KT 04/M02 A3036 RMK A01 T00391016  RH  067%=      5-min Rain = 0
KST2 131249Z 14003KT 04/M02 A3036 RMK A01 T00391016  RH  067%=      5-min Rain = 0
KST2 131250Z 15002KT 04/M02 A3036 RMK A01 T00391016  RH  067%=      5-min Rain = 0
KST2 131251Z 14003KT 04/M02 A3036 RMK A01 T00391016  RH  067%=      5-min Rain = 0
KST2 131252Z 15003KT 04/M02 A3036 RMK A01 T00391016  RH  067%=      5-min Rain = 0
KST2 131253Z 14003KT 04/M02 A3036 RMK A01 T00391016  RH  067%=      5-min Rain = 0
KST2 131254Z 14002KT 04/M02 A3036 RMK A01 T00391016  RH  067%=      5-min Rain = 0
KST2 131255Z 14002KT 04/M02 A3036 RMK A01 T00391016  RH  067%=      5-min Rain = 0
KST2 131256Z 14002KT 04/M02 A3036 RMK A01 T00391016  RH  067%=      5-min Rain = 0
KST2 131257Z 13003KT 04/M02 A3036 RMK A01 T00391016  RH  067%=      5-min Rain = 0
KST2 131258Z 14004KT 04/M02 A3036 RMK A01 T00401016  RH  067%=      5-min Rain = 0
KST2 131259Z 14004KT 04/M02 A3036 RMK A01 T00401016  RH  067%=      5-min Rain = 0
KST2 131300Z 13004KT 04/M02 A3036 RMK A01 T00401016  RH  067%=      5-min Rain = 0
KST2 131301Z 13004KT 04/M02 A3036 RMK A01 T00401016  RH  067%=      5-min Rain = 0
KST2 131302Z 13005KT 04/M02 A3036 RMK A01 T00401016  RH  067%=      5-min Rain = 0
KST2 131303Z 13005KT 04/M02 A3036 RMK A01 T00401016  RH  067%=      5-min Rain = 0
KST2 131304Z 13005KT 04/M02 A3036 RMK A01 T00401016  RH  066%=      5-min Rain = 0
KST2 131305Z 13004KT 04/M02 A3036 RMK A01 T00411016  RH  066%=      5-min Rain = 0
KST2 131306Z 13005KT 04/M02 A3036 RMK A01 T00411016  RH  066%=      5-min Rain = 0
KST2 131307Z 11004KT 04/M02 A3036 RMK A01 T00411016  RH  067%=      5-min Rain = 0
KST2 131308Z 11004KT 04/M02 A3036 RMK A01 T00401016  RH  067%=      5-min Rain = 0
KST2 131309Z 11004KT 04/M02 A3036 RMK A01 T00401016  RH  067%=      5-min Rain = 0
KST2 131310Z 12004KT 04/M02 A3036 RMK A01 T00411016  RH  067%=      5-min Rain = 0
KST2 131311Z 10003KT 04/M02 A3036 RMK A01 T00411015  RH  067%=      5-min Rain = 0
KST2 131312Z 11003KT 04/M02 A3036 RMK A01 T00411015  RH  067%=      5-min Rain = 0
KST2 131313Z 11003KT 04/M02 A3036 RMK A01 T00411016  RH  067%=      5-min Rain = 0
KST2 131314Z 11003KT 04/M02 A3036 RMK A01 T00411015  RH  067%=      5-min Rain = 0
KST2 131315Z 11003KT 04/M02 A3036 RMK A01 T00411015  RH  067%=      5-min Rain = 0
KST2 131316Z 11003KT 04/M02 A3036 RMK A01 T00411015  RH  067%=      5-min Rain = 0
KST2 131317Z 11004KT 04/M02 A3036 RMK A01 T00411015  RH  067%=      5-min Rain = 0
KST2 131318Z 12004KT 04/M02 A3036 RMK A01 T00411015  RH  067%=      5-min Rain = 0
KST2 131319Z 13004KT 04/M02 A3036 RMK A01 T00411015  RH  067%=      5-min Rain = 0
KST2 131320Z 12004KT 04/M02 A3036 RMK A01 T00411015  RH  067%=      5-min Rain = 0
KST2 131321Z 12004KT 04/M02 A3036 RMK A01 T00411015  RH  067%=      5-min Rain = 0
KST2 131322Z 12004KT 04/M02 A3036 RMK A01 T00411016  RH  066%=      5-min Rain = 0
KST2 131323Z 13004KT 04/M02 A3036 RMK A01 T00411015  RH  067%=      5-min Rain = 0
KST2 131324Z 12005KT 04/M02 A3036 RMK A01 T00421015  RH  067%=      5-min Rain = 0
KST2 131325Z 12005KT 04/M02 A3036 RMK A01 T00421015  RH  067%=      5-min Rain = 0
KST2 131326Z 12005KT 04/M02 A3036 RMK A01 T00421015  RH  067%=      5-min Rain = 0
KST2 131327Z 13005KT 04/M02 A3036 RMK A01 T00421015  RH  066%=      5-min Rain = 0
KST2 131328Z 12004KT 04/M02 A3036 RMK A01 T00421015  RH  066%=      5-min Rain = 0
KST2 131329Z 12005KT 04/M02 A3036 RMK A01 T00421015  RH  066%=      5-min Rain = 0
KST2 131330Z 12005KT 04/M01 A3036 RMK A01 T00431014  RH  066%=      5-min Rain = 0
KST2 131331Z 11005KT 04/M01 A3036 RMK A01 T00421014  RH  066%=      5-min Rain = 0
KST2 131332Z 11006KT 04/M01 A3036 RMK A01 T00421014  RH  066%=      5-min Rain = 0
KST2 131333Z 11006KT 04/M01 A3036 RMK A01 T00431014  RH  066%=      5-min Rain = 0
KST2 131334Z 12006KT 04/M01 A3036 RMK A01 T00431014  RH  066%=      5-min Rain = 0
KST2 131335Z 12005KT 04/M01 A3036 RMK A01 T00431014  RH  066%=      5-min Rain = 0
KST2 131336Z 12006KT 04/M01 A3036 RMK A01 T00431014  RH  066%=      5-min Rain = 0
KST2 131337Z 12006KT 04/M01 A3036 RMK A01 T00441014  RH  066%=      5-min Rain = 0
KST2 131338Z 12006KT 04/M01 A3036 RMK A01 T00441014  RH  066%=      5-min Rain = 0
KST2 131339Z 12007KT 04/M01 A3037 RMK A01 T00441013  RH  066%=      5-min Rain = 0
KST2 131340Z 12007KT 04/M01 A3037 RMK A01 T00441013  RH  067%=      5-min Rain = 0
KST2 131341Z 12006KT 04/M01 A3037 RMK A01 T00441013  RH  066%=      5-min Rain = 0
KST2 131342Z 11006KT 04/M01 A3037 RMK A01 T00441014  RH  066%=      5-min Rain = 0
KST2 131343Z 12007KT 04/M01 A3037 RMK A01 T00441014  RH  066%=      5-min Rain = 0
KST2 131344Z 12007KT 04/M01 A3037 RMK A01 T00441014  RH  066%=      5-min Rain = 0
KST2 131345Z 12007KT 04/M01 A3037 RMK A01 T00441013  RH  066%=      5-min Rain = 0
KST2 131346Z 12007KT 04/M01 A3037 RMK A01 T00441014  RH  066%=      5-min Rain = 0
KST2 131347Z 11006KT 04/M01 A3037 RMK A01 T00441014  RH  066%=      5-min Rain = 0
KST2 131348Z 11007KT 05/M01 A3037 RMK A01 T00451014  RH  066%=      5-min Rain = 0
KST2 131349Z 11007KT 05/M01 A3037 RMK A01 T00451014  RH  066%=      5-min Rain = 0
KST2 131350Z 11007KT 05/M01 A3037 RMK A01 T00451013  RH  066%=      5-min Rain = 0
KST2 131351Z 11007KT 05/M01 A3037 RMK A01 T00451013  RH  066%=      5-min Rain = 0
KST2 131352Z 11006KT 05/M01 A3037 RMK A01 T00451013  RH  066%=      5-min Rain = 0
KST2 131353Z 12006KT 05/M01 A3038 RMK A01 T00451013  RH  066%=      5-min Rain = 0
KST2 131354Z 12005KT 05/M01 A3038 RMK A01 T00461013  RH  066%=      5-min Rain = 0
KST2 131355Z 12005KT 05/M01 A3038 RMK A01 T00461013  RH  065%=      5-min Rain = 0
KST2 131356Z 12006KT 05/M01 A3038 RMK A01 T00471013  RH  065%=      5-min Rain = 0
KST2 131357Z 12007KT 05/M01 A3038 RMK A01 T00461013  RH  065%=      5-min Rain = 0
KST2 131358Z 12007KT 05/M01 A3038 RMK A01 T00461013  RH  066%=      5-min Rain = 0
KST2 131359Z 12007KT 05/M01 A3038 RMK A01 T00471012  RH  066%=      5-min Rain = 0
KST2 131400Z 12006KT 05/M01 A3038 RMK A01 T00461012  RH  066%=      5-min Rain = 0
KST2 131401Z 11006KT 05/M01 A3038 RMK A01 T00471012  RH  066%=      5-min Rain = 0
KST2 131402Z 12006KT 05/M01 A3038 RMK A01 T00461012  RH  066%=      5-min Rain = 0
KST2 131403Z 11005KT 05/M01 A3038 RMK A01 T00471012  RH  065%=      5-min Rain = 0
KST2 131404Z 11006KT 05/M01 A3038 RMK A01 T00471013  RH  065%=      5-min Rain = 0
KST2 131405Z 12007KT 05/M01 A3038 RMK A01 T00481012  RH  065%=      5-min Rain = 0
KST2 131406Z 11007KT 05/M01 A3038 RMK A01 T00471012  RH  065%=      5-min Rain = 0
KST2 131407Z 11006KT 05/M01 A3038 RMK A01 T00471012  RH  066%=      5-min Rain = 0
KST2 131408Z 12005KT 05/M01 A3038 RMK A01 T00471012  RH  066%=      5-min Rain = 0
KST2 131409Z 12006KT 05/M01 A3038 RMK A01 T00471012  RH  065%=      5-min Rain = 0
KST2 131410Z 12006KT 05/M01 A3038 RMK A01 T00471012  RH  065%=      5-min Rain = 0
KST2 131411Z 13006KT 05/M01 A3038 RMK A01 T00481012  RH  065%=      5-min Rain = 0
KST2 131412Z 13005KT 05/M01 A3038 RMK A01 T00471012  RH  065%=      5-min Rain = 0
KST2 131413Z 14006KT 05/M01 A3039 RMK A01 T00471011  RH  066%=      5-min Rain = 0
KST2 131414Z 13006KT 05/M01 A3039 RMK A01 T00471011  RH  066%=      5-min Rain = 0
KST2 131415Z 14007KT 05/M01 A3039 RMK A01 T00471011  RH  066%=      5-min Rain = 0
KST2 131416Z 14006KT 05/M01 A3039 RMK A01 T00481011  RH  066%=      5-min Rain = 0
KST2 131417Z 13006KT 05/M01 A3039 RMK A01 T00471011  RH  066%=      5-min Rain = 0
KST2 131418Z 13007KT 05/M01 A3039 RMK A01 T00481011  RH  066%=      5-min Rain = 0
KST2 131419Z 12007KT 05/M01 A3039 RMK A01 T00481011  RH  066%=      5-min Rain = 0
KST2 131420Z 13008KT 05/M01 A3039 RMK A01 T00471010  RH  066%=      5-min Rain = 0
KST2 131421Z 13007KT 05/M01 A3039 RMK A01 T00481010  RH  066%=      5-min Rain = 0
KST2 131422Z 13007KT 05/M01 A3039 RMK A01 T00481009  RH  067%=      5-min Rain = 0
KST2 131423Z 14007KT 05/M01 A3039 RMK A01 T00481008  RH  067%=      5-min Rain = 0
KST2 131424Z 13006KT 05/M01 A3039 RMK A01 T00481008  RH  067%=      5-min Rain = 0
KST2 131425Z 13006KT 05/M01 A3039 RMK A01 T00481008  RH  067%=      5-min Rain = 0
KST2 131426Z 13007KT 05/M01 A3039 RMK A01 T00491007  RH  067%=      5-min Rain = 0
KST2 131427Z 13008KT 05/M01 A3039 RMK A01 T00491007  RH  067%=      5-min Rain = 0
KST2 131428Z 13008KT 05/M00 A3039 RMK A01 T00491004  RH  069%=      5-min Rain = 0
KST2 131429Z 14009KT 05/M00 A3039 RMK A01 T00481004  RH  069%=      5-min Rain = 0
KST2 131430Z 14008KT 05/M00 A3039 RMK A01 T00481002  RH  070%=      5-min Rain = 0
KST2 131431Z 14009KT 05/M00 A3039 RMK A01 T00481001  RH  070%=      5-min Rain = 0
KST2 131432Z 14008KT 05/00 A3039 RMK A01 T004800-0  RH  071%=      5-min Rain = 0
KST2 131433Z 14008KT 05/M00 A3039 RMK A01 T00471001  RH  071%=      5-min Rain = 0
KST2 131434Z 14009KT 05/00 A3039 RMK A01 T004700-0  RH  071%=      5-min Rain = 0
KST2 131435Z 13009KT 05/00 A3039 RMK A01 T00470001  RH  072%=      5-min Rain = 0
KST2 131436Z 13009KT 05/00 A3039 RMK A01 T00470001  RH  072%=      5-min Rain = 0
KST2 131437Z 13008KT 05/00 A3039 RMK A01 T00470002  RH  072%=      5-min Rain = 0
KST2 131438Z 14008KT 05/00 A3039 RMK A01 T00470002  RH  073%=      5-min Rain = 0
KST2 131439Z 14008KT 05/00 A3039 RMK A01 T00470003  RH  073%=      5-min Rain = 0
KST2 131440Z 14008KT 05/00 A3039 RMK A01 T00470004  RH  074%=      5-min Rain = 0
KST2 131441Z 14008KT 05/01 A3039 RMK A01 T00470006  RH  075%=      5-min Rain = 0
KST2 131442Z 14008KT 05/01 A3039 RMK A01 T00470006  RH  075%=      5-min Rain = 0
KST2 131443Z 14008KT 05/01 A3039 RMK A01 T00470006  RH  075%=      5-min Rain = 0
KST2 131444Z 14008KT 05/01 A3039 RMK A01 T00470007  RH  075%=      5-min Rain = 0
KST2 131445Z 14009KT 05/01 A3039 RMK A01 T00460006  RH  075%=      5-min Rain = 0
KST2 131446Z 14009KT 05/01 A3039 RMK A01 T00470007  RH  075%=      5-min Rain = 0
KST2 131447Z 14008KT 05/01 A3039 RMK A01 T00460006  RH  075%=      5-min Rain = 0
KST2 131448Z 14008KT 05/01 A3039 RMK A01 T00460006  RH  075%=      5-min Rain = 0
KST2 131449Z 13008KT 05/01 A3039 RMK A01 T00470006  RH  075%=      5-min Rain = 0
KST2 131450Z 14007KT 05/01 A3039 RMK A01 T00460006  RH  075%=      5-min Rain = 0
KST2 131451Z 13008KT 05/01 A3039 RMK A01 T00470006  RH  075%=      5-min Rain = 0
KST2 131452Z 13007KT 05/01 A3039 RMK A01 T00470006  RH  075%=      5-min Rain = 0
KST2 131453Z 13007KT 05/01 A3039 RMK A01 T00470007  RH  075%=      5-min Rain = 0
KST2 131454Z 13009KT 05/01 A3039 RMK A01 T00470007  RH  076%=      5-min Rain = 0
KST2 131455Z 14009KT 05/01 A3039 RMK A01 T00460008  RH  076%=      5-min Rain = 0
KST2 131456Z 13010KT 05/01 A3039 RMK A01 T00460009  RH  077%=      5-min Rain = 0
KST2 131457Z 13009KT 05/01 A3039 RMK A01 T00460009  RH  077%=      5-min Rain = 0
KST2 131458Z 14009KT 05/01 A3039 RMK A01 T00450009  RH  077%=      5-min Rain = 0
KST2 131459Z 14009KT 05/01 A3039 RMK A01 T00460009  RH  077%=      5-min Rain = 0
KST2 131500Z 14009KT 05/01 A3039 RMK A01 T00460009  RH  077%=      5-min Rain = 0
KST2 131501Z 13009KT 05/01 A3039 RMK A01 T00460009  RH  077%=      5-min Rain = 0
KST2 131502Z 13010KT 05/01 A3039 RMK A01 T00450010  RH  078%=      5-min Rain = 0
KST2 131503Z 14009KT 05/01 A3039 RMK A01 T00450010  RH  078%=      5-min Rain = 0
KST2 131504Z 14009KT 05/01 A3039 RMK A01 T00450011  RH  078%=      5-min Rain = 0
KST2 131505Z 13009KT 05/01 A304 RMK A01 T00450011  RH  079%=      5-min Rain = 0
KST2 131506Z 14008KT 05/01 A304 RMK A01 T00450011  RH  079%=      5-min Rain = 0
KST2 131507Z 13009KT 05/01 A304 RMK A01 T00450010  RH  078%=      5-min Rain = 0
KST2 131508Z 13010KT 05/01 A304 RMK A01 T00460010  RH  078%=      5-min Rain = 0
KST2 131509Z 14010KT 05/01 A304 RMK A01 T00460010  RH  078%=      5-min Rain = 0
KST2 131510Z 13010KT 05/01 A304 RMK A01 T00450011  RH  078%=      5-min Rain = 0
KST2 131511Z 14008KT 05/01 A3039 RMK A01 T00450012  RH  079%=      5-min Rain = 0
KST2 131512Z 13009KT 05/01 A3039 RMK A01 T00450012  RH  079%=      5-min Rain = 0
KST2 131513Z 13009KT 05/01 A3039 RMK A01 T00460013  RH  079%=      5-min Rain = 0
KST2 131514Z 13009KT 05/01 A3039 RMK A01 T00460012  RH  079%=      5-min Rain = 0
KST2 131515Z 13010KT 05/01 A3039 RMK A01 T00470013  RH  079%=      5-min Rain = 0
KST2 131516Z 13009KT 05/01 A3039 RMK A01 T00460013  RH  079%=      5-min Rain = 0
KST2 131517Z 13010KT 05/01 A3039 RMK A01 T00460013  RH  079%=      5-min Rain = 0
KST2 131518Z 13010KT 05/01 A3039 RMK A01 T00460014  RH  079%=      5-min Rain = 0
KST2 131519Z 13009KT 05/01 A3039 RMK A01 T00460014  RH  080%=      5-min Rain = 0
KST2 131520Z 13008KT 05/01 A3039 RMK A01 T00460014  RH  080%=      5-min Rain = 0
KST2 131521Z 13008KT 05/01 A3039 RMK A01 T00460014  RH  080%=      5-min Rain = 0
KST2 131522Z 12008KT 05/01 A3039 RMK A01 T00470014  RH  080%=      5-min Rain = 0
KST2 131523Z 12008KT 05/02 A3039 RMK A01 T00480015  RH  079%=      5-min Rain = 0
KST2 131524Z 12008KT 05/02 A3039 RMK A01 T00480015  RH  079%=      5-min Rain = 0
KST2 131525Z 13008KT 05/02 A3039 RMK A01 T00470015  RH  080%=      5-min Rain = 0
KST2 131526Z 13008KT 05/02 A3039 RMK A01 T00470016  RH  080%=      5-min Rain = 0
KST2 131527Z 13007KT 05/02 A3039 RMK A01 T00470016  RH  080%=      5-min Rain = 0
KST2 131528Z 13007KT 05/02 A3039 RMK A01 T00480016  RH  080%=      5-min Rain = 0
KST2 131529Z 13006KT 05/02 A3039 RMK A01 T00470016  RH  080%=      5-min Rain = 0
KST2 131530Z 13007KT 05/02 A3039 RMK A01 T00480016  RH  080%=      5-min Rain = 0
KST2 131531Z 14008KT 05/02 A3039 RMK A01 T00480016  RH  080%=      5-min Rain = 0
KST2 131532Z 14008KT 05/02 A3039 RMK A01 T00480016  RH  080%=      5-min Rain = 0
KST2 131533Z 15007KT 05/02 A3039 RMK A01 T00490016  RH  079%=      5-min Rain = 0
KST2 131534Z 15008KT 05/02 A3039 RMK A01 T00500016  RH  079%=      5-min Rain = 0
KST2 131535Z 14009KT 05/02 A3039 RMK A01 T00500016  RH  078%=      5-min Rain = 0
KST2 131536Z 15007KT 05/02 A3039 RMK A01 T00500016  RH  079%=      5-min Rain = 0
KST2 131537Z 15007KT 05/02 A3039 RMK A01 T00500016  RH  079%=      5-min Rain = 0
KST2 131538Z 14007KT 05/02 A3039 RMK A01 T00500016  RH  079%=      5-min Rain = 0
KST2 131539Z 14007KT 05/02 A3039 RMK A01 T00520017  RH  078%=      5-min Rain = 0
KST2 131540Z 14007KT 05/02 A3038 RMK A01 T00520017  RH  078%=      5-min Rain = 0
KST2 131541Z 13008KT 05/02 A3038 RMK A01 T00520017  RH  078%=      5-min Rain = 0
KST2 131542Z 13008KT 05/02 A3038 RMK A01 T00510016  RH  078%=      5-min Rain = 0
KST2 131543Z 13009KT 05/02 A3038 RMK A01 T00510017  RH  078%=      5-min Rain = 0
KST2 131544Z 13009KT 05/02 A3038 RMK A01 T00510016  RH  078%=      5-min Rain = 0
KST2 131545Z 13007KT 05/02 A3038 RMK A01 T00520017  RH  078%=      5-min Rain = 0
KST2 131546Z 14007KT 05/02 A3038 RMK A01 T00530017  RH  078%=      5-min Rain = 0
KST2 131547Z 13007KT 05/02 A3038 RMK A01 T00540017  RH  077%=      5-min Rain = 0
KST2 131548Z 12007KT 05/02 A3038 RMK A01 T00530017  RH  077%=      5-min Rain = 0
KST2 131549Z 12006KT 05/02 A3038 RMK A01 T00520017  RH  078%=      5-min Rain = 0
KST2 131550Z 12006KT 05/02 A3038 RMK A01 T00520017  RH  078%=      5-min Rain = 0
KST2 131551Z 13006KT 05/02 A3038 RMK A01 T00520018  RH  078%=      5-min Rain = 0
KST2 131552Z 12006KT 05/02 A3039 RMK A01 T00530018  RH  078%=      5-min Rain = 0
KST2 131553Z 11006KT 05/02 A3039 RMK A01 T00540018  RH  078%=      5-min Rain = 0
KST2 131554Z 11007KT 05/02 A3039 RMK A01 T00540018  RH  078%=      5-min Rain = 0
KST2 131555Z 12006KT 06/02 A3038 RMK A01 T00550018  RH  077%=      5-min Rain = 0
KST2 131556Z 13005KT 06/02 A3039 RMK A01 T00550018  RH  077%=      5-min Rain = 0
KST2 131557Z 13005KT 05/02 A3038 RMK A01 T00540018  RH  077%=      5-min Rain = 0
KST2 131558Z 12006KT 05/02 A3039 RMK A01 T00540018  RH  078%=      5-min Rain = 0
KST2 131559Z 13007KT 05/02 A3039 RMK A01 T00540018  RH  078%=      5-min Rain = 0
KST2 131600Z 13006KT 05/02 A3039 RMK A01 T00540018  RH  078%=      5-min Rain = 0
KST2 131601Z 13005KT 06/02 A3039 RMK A01 T00550019  RH  078%=      5-min Rain = 0
KST2 131602Z 12006KT 06/02 A3039 RMK A01 T00560019  RH  077%=      5-min Rain = 0
KST2 131603Z 12005KT 06/02 A3039 RMK A01 T00560019  RH  077%=      5-min Rain = 0
KST2 131604Z 13005KT 06/02 A3039 RMK A01 T00560019  RH  077%=      5-min Rain = 0
KST2 131605Z 12005KT 06/02 A3039 RMK A01 T00550019  RH  077%=      5-min Rain = 0
KST2 131606Z 15005KT 06/02 A3039 RMK A01 T00550019  RH  077%=      5-min Rain = 0
KST2 131607Z 15005KT 06/02 A3039 RMK A01 T00560019  RH  077%=      5-min Rain = 0
KST2 131608Z 14006KT 06/02 A3039 RMK A01 T00560019  RH  077%=      5-min Rain = 0
KST2 131609Z 14006KT 06/02 A3039 RMK A01 T00550019  RH  078%=      5-min Rain = 0
KST2 131610Z 14008KT 06/02 A304 RMK A01 T00550019  RH  078%=      5-min Rain = 0
KST2 131611Z 14009KT 06/02 A304 RMK A01 T00560019  RH  077%=      5-min Rain = 0
KST2 131612Z 14008KT 06/02 A304 RMK A01 T00560020  RH  077%=      5-min Rain = 0
KST2 131613Z 14006KT 06/02 A304 RMK A01 T00570020  RH  077%=      5-min Rain = 0
KST2 131614Z 16008KT 06/02 A304 RMK A01 T00590020  RH  076%=      5-min Rain = 0
KST2 131615Z 16008KT 06/02 A304 RMK A01 T00600020  RH  076%=      5-min Rain = 0
KST2 131616Z 15008KT 06/02 A304 RMK A01 T00600020  RH  076%=      5-min Rain = 0
KST2 131617Z 16009KT 06/02 A3041 RMK A01 T00600020  RH  076%=      5-min Rain = 0
KST2 131618Z 15009KT 06/02 A304 RMK A01 T00590020  RH  076%=      5-min Rain = 0
KST2 131619Z 15008KT 06/02 A304 RMK A01 T00590020  RH  076%=      5-min Rain = 0
KST2 131620Z 14007KT 06/02 A304 RMK A01 T00590020  RH  076%=      5-min Rain = 0
KST2 131621Z 14009KT 06/02 A304 RMK A01 T00590020  RH  076%=      5-min Rain = 0
KST2 131622Z 14008KT 06/02 A304 RMK A01 T00590020  RH  076%=      5-min Rain = 0
KST2 131623Z 14008KT 06/02 A304 RMK A01 T00590020  RH  076%=      5-min Rain = 0
KST2 131624Z 14009KT 06/02 A304 RMK A01 T00600021  RH  076%=      5-min Rain = 0
KST2 131625Z 14008KT 06/02 A304 RMK A01 T00600021  RH  076%=      5-min Rain = 0
KST2 131626Z 13008KT 06/02 A304 RMK A01 T00600021  RH  076%=      5-min Rain = 0
KST2 131627Z 14008KT 06/02 A304 RMK A01 T00590021  RH  076%=      5-min Rain = 0
KST2 131628Z 13008KT 06/02 A304 RMK A01 T00600021  RH  076%=      5-min Rain = 0
KST2 131629Z 13009KT 06/02 A304 RMK A01 T00600021  RH  076%=      5-min Rain = 0
KST2 131630Z 15009KT 06/02 A304 RMK A01 T00590021  RH  076%=      5-min Rain = 0
KST2 131631Z 14008KT 06/02 A304 RMK A01 T00590021  RH  077%=      5-min Rain = 0
KST2 131632Z 14008KT 06/02 A304 RMK A01 T00610022  RH  076%=      5-min Rain = 0
KST2 131633Z 14009KT 06/02 A304 RMK A01 T00620023  RH  076%=      5-min Rain = 0
KST2 131634Z 14008KT 06/02 A304 RMK A01 T00620022  RH  076%=      5-min Rain = 0
KST2 131635Z 13007KT 06/02 A304 RMK A01 T00620022  RH  076%=      5-min Rain = 0
KST2 131636Z 14008KT 06/02 A304 RMK A01 T00620023  RH  076%=      5-min Rain = 0
KST2 131637Z 16007KT 06/02 A304 RMK A01 T00620023  RH  076%=      5-min Rain = 0
KST2 131638Z 15006KT 06/02 A304 RMK A01 T00630023  RH  076%=      5-min Rain = 0
KST2 131639Z 14007KT 06/02 A304 RMK A01 T00630024  RH  076%=      5-min Rain = 0
KST2 131640Z 14008KT 06/02 A304 RMK A01 T00640024  RH  076%=      5-min Rain = 0
KST2 131641Z 14006KT 06/02 A304 RMK A01 T00630024  RH  076%=      5-min Rain = 0
KST2 131642Z 13006KT 06/03 A304 RMK A01 T00630025  RH  076%=      5-min Rain = 0
KST2 131643Z 13007KT 07/03 A304 RMK A01 T00650025  RH  076%=      5-min Rain = 0
KST2 131644Z 14006KT 07/03 A304 RMK A01 T00660025  RH  075%=      5-min Rain = 0
KST2 131645Z 15009KT 07/03 A304 RMK A01 T00660025  RH  075%=      5-min Rain = 0
KST2 131646Z 14007KT 07/03 A304 RMK A01 T00670025  RH  075%=      5-min Rain = 0
KST2 131647Z 14007KT 07/02 A304 RMK A01 T00660024  RH  075%=      5-min Rain = 0
KST2 131648Z 15008KT 07/03 A304 RMK A01 T00660025  RH  075%=      5-min Rain = 0
KST2 131649Z 14008KT 07/03 A304 RMK A01 T00670026  RH  075%=      5-min Rain = 0
KST2 131650Z 15007KT 07/03 A304 RMK A01 T00660025  RH  075%=      5-min Rain = 0
KST2 131651Z 14007KT 07/03 A304 RMK A01 T00660025  RH  075%=      5-min Rain = 0
KST2 131652Z 14008KT 07/03 A304 RMK A01 T00660025  RH  075%=      5-min Rain = 0
KST2 131653Z 13005KT 07/03 A304 RMK A01 T00670025  RH  075%=      5-min Rain = 0
KST2 131654Z 14007KT 07/03 A304 RMK A01 T00660025  RH  075%=      5-min Rain = 0
KST2 131655Z 13007KT 07/03 A304 RMK A01 T00680026  RH  075%=      5-min Rain = 0
KST2 131656Z 13010KT 07/03 A304 RMK A01 T00690026  RH  074%=      5-min Rain = 0
KST2 131657Z 14008KT 07/03 A304 RMK A01 T00680025  RH  074%=      5-min Rain = 0
KST2 131658Z 13006KT 07/03 A304 RMK A01 T00670025  RH  075%=      5-min Rain = 0
KST2 131659Z 14008KT 07/03 A304 RMK A01 T00670026  RH  075%=      5-min Rain = 0
KST2 131700Z 15009KT 07/03 A304 RMK A01 T00690026  RH  074%=      5-min Rain = 0
KST2 131701Z 14007KT 07/03 A304 RMK A01 T00690025  RH  074%=      5-min Rain = 0
KST2 131702Z 14006KT 07/03 A304 RMK A01 T00680026  RH  074%=      5-min Rain = 0
KST2 131703Z 15007KT 07/03 A304 RMK A01 T00680026  RH  074%=      5-min Rain = 0
KST2 131704Z 15009KT 07/03 A304 RMK A01 T00690026  RH  074%=      5-min Rain = 0
KST2 131705Z 14008KT 07/03 A304 RMK A01 T00700026  RH  074%=      5-min Rain = 0
KST2 131706Z 15007KT 07/03 A304 RMK A01 T00690025  RH  074%=      5-min Rain = 0
KST2 131707Z 15009KT 07/03 A3039 RMK A01 T00690026  RH  074%=      5-min Rain = 0
KST2 131708Z 15009KT 07/03 A3039 RMK A01 T00690026  RH  074%=      5-min Rain = 0
KST2 131709Z 14009KT 07/03 A3039 RMK A01 T00700026  RH  074%=      5-min Rain = 0
KST2 131710Z 14008KT 07/03 A3039 RMK A01 T00710026  RH  073%=      5-min Rain = 0
KST2 131711Z 13008KT 07/03 A3039 RMK A01 T00710026  RH  073%=      5-min Rain = 0
KST2 131712Z 14009KT 07/03 A3039 RMK A01 T00710027  RH  073%=      5-min Rain = 0
KST2 131713Z 14008KT 07/03 A3039 RMK A01 T00710027  RH  073%=      5-min Rain = 0
KST2 131714Z 14008KT 07/03 A3039 RMK A01 T00720028  RH  073%=      5-min Rain = 0
KST2 131715Z 15007KT 07/03 A3039 RMK A01 T00730028  RH  073%=      5-min Rain = 0
KST2 131716Z 15008KT 08/03 A3039 RMK A01 T00750029  RH  073%=      5-min Rain = 0
KST2 131717Z 15008KT 08/03 A3039 RMK A01 T00760029  RH  072%=      5-min Rain = 0
KST2 131718Z 13008KT 08/03 A3039 RMK A01 T00770029  RH  071%=      5-min Rain = 0
KST2 131719Z 13008KT 08/03 A3039 RMK A01 T00760028  RH  072%=      5-min Rain = 0
KST2 131720Z 14008KT 08/03 A3039 RMK A01 T00760029  RH  072%=      5-min Rain = 0
KST2 131721Z 14007KT 08/03 A3039 RMK A01 T00750029  RH  072%=      5-min Rain = 0
KST2 131722Z 15006KT 08/03 A3039 RMK A01 T00750029  RH  072%=      5-min Rain = 0
KST2 131723Z 15007KT 08/03 A3039 RMK A01 T00760029  RH  072%=      5-min Rain = 0
KST2 131724Z 15010KT 08/03 A3039 RMK A01 T00760029  RH  072%=      5-min Rain = 0
KST2 131725Z 15009KT 08/03 A3039 RMK A01 T00770030  RH  072%=      5-min Rain = 0
KST2 131726Z 15008KT 08/03 A3039 RMK A01 T00770030  RH  072%=      5-min Rain = 0
KST2 131727Z 15007KT 08/03 A3039 RMK A01 T00760029  RH  072%=      5-min Rain = 0
KST2 131728Z 16007KT 08/03 A3039 RMK A01 T00760030  RH  072%=      5-min Rain = 0
KST2 131729Z 15007KT 08/03 A3039 RMK A01 T00780031  RH  072%=      5-min Rain = 0
KST2 131730Z 15008KT 08/03 A3039 RMK A01 T00800032  RH  071%=      5-min Rain = 0
KST2 131731Z 14008KT 08/03 A3039 RMK A01 T00820032  RH  071%=      5-min Rain = 0
KST2 131732Z 14006KT 08/03 A3039 RMK A01 T00810032  RH  071%=      5-min Rain = 0
KST2 131733Z 14007KT 08/03 A3039 RMK A01 T00810031  RH  070%=      5-min Rain = 0
KST2 131734Z 15005KT 08/03 A3039 RMK A01 T00810031  RH  071%=      5-min Rain = 0
KST2 131735Z 12007KT 08/03 A3039 RMK A01 T00810032  RH  071%=      5-min Rain = 0
KST2 131736Z 12008KT 08/03 A3039 RMK A01 T00830033  RH  071%=      5-min Rain = 0
KST2 131737Z 14006KT 08/03 A3039 RMK A01 T00840032  RH  070%=      5-min Rain = 0
KST2 131738Z 14005KT 08/03 A3039 RMK A01 T00830031  RH  070%=      5-min Rain = 0
KST2 131739Z 12005KT 08/03 A3039 RMK A01 T00810030  RH  070%=      5-min Rain = 0
KST2 131740Z 13007KT 08/03 A3039 RMK A01 T00820032  RH  071%=      5-min Rain = 0
KST2 131741Z 12007KT 08/03 A3039 RMK A01 T00810030  RH  070%=      5-min Rain = 0
KST2 131742Z 13007KT 08/03 A3039 RMK A01 T00810031  RH  071%=      5-min Rain = 0
KST2 131743Z 13007KT 08/03 A3039 RMK A01 T00810031  RH  071%=      5-min Rain = 0
KST2 131744Z 12006KT 08/03 A3039 RMK A01 T00810032  RH  071%=      5-min Rain = 0
KST2 131745Z 14008KT 08/03 A3039 RMK A01 T00830033  RH  071%=      5-min Rain = 0
KST2 131746Z 13007KT 09/03 A3039 RMK A01 T00850032  RH  069%=      5-min Rain = 0
KST2 131747Z 13006KT 09/03 A3039 RMK A01 T00860033  RH  069%=      5-min Rain = 0
KST2 131748Z 12007KT 09/03 A3039 RMK A01 T00860032  RH  069%=      5-min Rain = 0
KST2 131749Z 13008KT 09/03 A3039 RMK A01 T00860034  RH  069%=      5-min Rain = 0
KST2 131750Z 14006KT 09/03 A3039 RMK A01 T00880033  RH  069%=      5-min Rain = 0
KST2 131751Z 14006KT 09/03 A3039 RMK A01 T00860032  RH  069%=      5-min Rain = 0
KST2 131752Z 15008KT 09/03 A3039 RMK A01 T00870034  RH  069%=      5-min Rain = 0
KST2 131753Z 15006KT 09/03 A3039 RMK A01 T00880033  RH  069%=      5-min Rain = 0
KST2 131754Z 16007KT 09/03 A3039 RMK A01 T00880033  RH  068%=      5-min Rain = 0
KST2 131755Z 13008KT 09/03 A3039 RMK A01 T00890034  RH  068%=      5-min Rain = 0
KST2 131756Z 12008KT 09/03 A3038 RMK A01 T00890033  RH  068%=      5-min Rain = 0
KST2 131757Z 14007KT 09/03 A3038 RMK A01 T00880033  RH  068%=      5-min Rain = 0
KST2 131758Z 15006KT 09/04 A3038 RMK A01 T00910035  RH  068%=      5-min Rain = 0
KST2 131759Z 16007KT 09/04 A3038 RMK A01 T00930035  RH  067%=      5-min Rain = 0
KST2 131800Z 14008KT 09/03 A3038 RMK A01 T00930034  RH  067%=      5-min Rain = 0
KST2 131801Z 13007KT 09/03 A3038 RMK A01 T00920034  RH  067%=      5-min Rain = 0
KST2 131802Z 14007KT 10/04 A3038 RMK A01 T00950037  RH  067%=      5-min Rain = 0
KST2 131803Z 14008KT 10/04 A3037 RMK A01 T00990039  RH  066%=      5-min Rain = 0
KST2 131804Z 15009KT 10/04 A3037 RMK A01 T01040039  RH  064%=      5-min Rain = 0
KST2 131805Z 15008KT 10/04 A3037 RMK A01 T01040038  RH  064%=      5-min Rain = 0
KST2 131806Z 15009KT 10/04 A3037 RMK A01 T01040037  RH  063%=      5-min Rain = 0
KST2 131807Z 16009KT 10/04 A3037 RMK A01 T01020037  RH  064%=      5-min Rain = 0
KST2 131808Z 16008KT 10/04 A3037 RMK A01 T01030037  RH  064%=      5-min Rain = 0
KST2 131809Z 17008KT 10/04 A3037 RMK A01 T01020037  RH  064%=      5-min Rain = 0
KST2 131810Z 15006KT 10/04 A3037 RMK A01 T01010037  RH  064%=      5-min Rain = 0
KST2 131811Z 11007KT 10/04 A3038 RMK A01 T01040039  RH  064%=      5-min Rain = 0
KST2 131812Z 11006KT 10/04 A3037 RMK A01 T01040036  RH  063%=      5-min Rain = 0
KST2 131813Z 14006KT 10/04 A3037 RMK A01 T01040038  RH  064%=      5-min Rain = 0
KST2 131814Z 15005KT 10/04 A3037 RMK A01 T01040036  RH  063%=      5-min Rain = 0
KST2 131815Z 13005KT 11/04 A3037 RMK A01 T01050038  RH  063%=      5-min Rain = 0
KST2 131816Z 14007KT 11/04 A3037 RMK A01 T01070040  RH  063%=      5-min Rain = 0
KST2 131817Z 13007KT 11/04 A3037 RMK A01 T01100040  RH  062%=      5-min Rain = 0
KST2 131818Z 12007KT 11/04 A3037 RMK A01 T01080036  RH  061%=      5-min Rain = 0
KST2 131819Z 12007KT 11/04 A3037 RMK A01 T01050035  RH  062%=      5-min Rain = 0
KST2 131820Z 13007KT 11/04 A3037 RMK A01 T01050038  RH  063%=      5-min Rain = 0
KST2 131821Z 16010KT 11/04 A3037 RMK A01 T01110042  RH  062%=      5-min Rain = 0
KST2 131822Z 16010KT 11/04 A3037 RMK A01 T01120039  RH  060%=      5-min Rain = 0
KST2 131823Z 15009KT 11/04 A3037 RMK A01 T01100038  RH  061%=      5-min Rain = 0
KST2 131824Z 16007KT 11/04 A3037 RMK A01 T01080037  RH  061%=      5-min Rain = 0
KST2 131825Z 16006KT 11/04 A3037 RMK A01 T01060036  RH  062%=      5-min Rain = 0
KST2 131826Z 16006KT 11/04 A3037 RMK A01 T01050036  RH  062%=      5-min Rain = 0
KST2 131827Z 18005KT 11/04 A3037 RMK A01 T01050036  RH  062%=      5-min Rain = 0
KST2 131828Z 17006KT 10/04 A3037 RMK A01 T01040036  RH  063%=      5-min Rain = 0
KST2 131829Z 17006KT 10/04 A3037 RMK A01 T01040036  RH  063%=      5-min Rain = 0
KST2 131830Z 16006KT 10/04 A3037 RMK A01 T01040036  RH  063%=      5-min Rain = 0
KST2 131831Z 13009KT 11/04 A3037 RMK A01 T01050036  RH  062%=      5-min Rain = 0
KST2 131832Z 12007KT 11/04 A3037 RMK A01 T01050035  RH  062%=      5-min Rain = 0
KST2 131833Z 13004KT 11/04 A3037 RMK A01 T01050035  RH  062%=      5-min Rain = 0
KST2 131834Z 13005KT 10/04 A3037 RMK A01 T01040035  RH  062%=      5-min Rain = 0
KST2 131835Z 16006KT 11/04 A3037 RMK A01 T01050036  RH  062%=      5-min Rain = 0
KST2 131836Z 15008KT 11/04 A3037 RMK A01 T01080038  RH  062%=      5-min Rain = 0
KST2 131837Z 16010KT 11/04 A3037 RMK A01 T01100038  RH  061%=      5-min Rain = 0
KST2 131838Z 17011KT 11/04 A3037 RMK A01 T01090038  RH  061%=      5-min Rain = 0
KST2 131839Z 17008KT 11/04 A3037 RMK A01 T01090037  RH  061%=      5-min Rain = 0
KST2 131840Z 18006KT 11/04 A3037 RMK A01 T01070036  RH  061%=      5-min Rain = 0
KST2 131841Z 19007KT 11/04 A3037 RMK A01 T01060036  RH  062%=      5-min Rain = 0
KST2 131842Z 18008KT 11/04 A3037 RMK A01 T01060036  RH  062%=      5-min Rain = 0
KST2 131843Z 17006KT 11/04 A3037 RMK A01 T01050036  RH  062%=      5-min Rain = 0
KST2 131844Z 18005KT 11/04 A3037 RMK A01 T01050035  RH  062%=      5-min Rain = 0
KST2 131845Z 18006KT 11/04 A3037 RMK A01 T01060036  RH  062%=      5-min Rain = 0
KST2 131846Z 14008KT 11/04 A3037 RMK A01 T01070036  RH  061%=      5-min Rain = 0
KST2 131847Z 14007KT 11/04 A3037 RMK A01 T01080036  RH  061%=      5-min Rain = 0
KST2 131848Z 14005KT 11/04 A3036 RMK A01 T01070035  RH  061%=      5-min Rain = 0
KST2 131849Z 16007KT 11/04 A3036 RMK A01 T01060036  RH  062%=      5-min Rain = 0
KST2 131850Z 17008KT 11/04 A3036 RMK A01 T01080038  RH  062%=      5-min Rain = 0
KST2 131851Z 16006KT 11/04 A3036 RMK A01 T01120040  RH  061%=      5-min Rain = 0
KST2 131852Z 17005KT 11/04 A3036 RMK A01 T01130039  RH  060%=      5-min Rain = 0
KST2 131853Z 15007KT 11/04 A3036 RMK A01 T01130038  RH  060%=      5-min Rain = 0
KST2 131854Z 15008KT 11/04 A3036 RMK A01 T01120037  RH  060%=      5-min Rain = 0
KST2 131855Z 15005KT 11/04 A3036 RMK A01 T01110037  RH  060%=      5-min Rain = 0
KST2 131856Z 15007KT 11/04 A3036 RMK A01 T01110038  RH  061%=      5-min Rain = 0
KST2 131857Z 16007KT 11/04 A3036 RMK A01 T01120039  RH  060%=      5-min Rain = 0
KST2 131858Z 16007KT 11/04 A3035 RMK A01 T01120038  RH  060%=      5-min Rain = 0
KST2 131859Z 16005KT 11/04 A3035 RMK A01 T01100036  RH  060%=      5-min Rain = 0
KST2 131900Z 17004KT 11/04 A3035 RMK A01 T01090037  RH  061%=      5-min Rain = 0
KST2 131901Z 19004KT 11/04 A3035 RMK A01 T01100037  RH  061%=      5-min Rain = 0
KST2 131902Z 17004KT 11/04 A3035 RMK A01 T01110038  RH  060%=      5-min Rain = 0
KST2 131903Z 16008KT 11/04 A3035 RMK A01 T01120038  RH  060%=      5-min Rain = 0
KST2 131904Z 16009KT 11/04 A3035 RMK A01 T01130039  RH  060%=      5-min Rain = 0
KST2 131905Z 15008KT 11/04 A3035 RMK A01 T01140039  RH  060%=      5-min Rain = 0
KST2 131906Z 14006KT 11/04 A3035 RMK A01 T01140039  RH  060%=      5-min Rain = 0
KST2 131907Z 13005KT 11/04 A3035 RMK A01 T01140039  RH  060%=      5-min Rain = 0
KST2 131908Z 15007KT 11/04 A3035 RMK A01 T01130039  RH  060%=      5-min Rain = 0
KST2 131909Z 16008KT 12/04 A3034 RMK A01 T01150041  RH  060%=      5-min Rain = 0
KST2 131910Z 16009KT 12/04 A3034 RMK A01 T01190041  RH  059%=      5-min Rain = 0
KST2 131911Z 16008KT 12/04 A3034 RMK A01 T01180041  RH  059%=      5-min Rain = 0
KST2 131912Z 16007KT 12/04 A3034 RMK A01 T01190042  RH  059%=      5-min Rain = 0
KST2 131913Z 17006KT 12/04 A3034 RMK A01 T01190041  RH  059%=      5-min Rain = 0
KST2 131914Z 15007KT 12/04 A3034 RMK A01 T01190041  RH  059%=      5-min Rain = 0
KST2 131915Z 16007KT 12/04 A3034 RMK A01 T01200042  RH  059%=      5-min Rain = 0
KST2 131916Z 16007KT 12/04 A3034 RMK A01 T01240043  RH  058%=      5-min Rain = 0
KST2 131917Z 19006KT 13/04 A3034 RMK A01 T01260042  RH  057%=      5-min Rain = 0
KST2 131918Z 17008KT 13/04 A3034 RMK A01 T01250040  RH  056%=      5-min Rain = 0
KST2 131919Z 15007KT 12/04 A3034 RMK A01 T01230040  RH  057%=      5-min Rain = 0
KST2 131920Z 15008KT 12/04 A3034 RMK A01 T01210040  RH  058%=      5-min Rain = 0
KST2 131921Z 16010KT 12/04 A3034 RMK A01 T01210041  RH  058%=      5-min Rain = 0
KST2 131922Z 15007KT 12/04 A3034 RMK A01 T01180040  RH  059%=      5-min Rain = 0
KST2 131923Z 15006KT 12/04 A3034 RMK A01 T01170040  RH  059%=      5-min Rain = 0
KST2 131924Z 16006KT 12/04 A3033 RMK A01 T01180041  RH  059%=      5-min Rain = 0
KST2 131925Z 14008KT 12/04 A3033 RMK A01 T01190041  RH  059%=      5-min Rain = 0
KST2 131926Z 13006KT 12/04 A3033 RMK A01 T01200040  RH  058%=      5-min Rain = 0
KST2 131927Z 14008KT 12/04 A3033 RMK A01 T01200041  RH  058%=      5-min Rain = 0
KST2 131928Z 15009KT 12/04 A3033 RMK A01 T01200042  RH  059%=      5-min Rain = 0
KST2 131929Z 15006KT 12/04 A3033 RMK A01 T01210042  RH  058%=      5-min Rain = 0
KST2 131930Z 14007KT 12/04 A3033 RMK A01 T01220042  RH  058%=      5-min Rain = 0
KST2 131931Z 15008KT 12/04 A3033 RMK A01 T01220042  RH  058%=      5-min Rain = 0
KST2 131932Z 16006KT 12/04 A3033 RMK A01 T01200041  RH  058%=      5-min Rain = 0
KST2 131933Z 14008KT 12/04 A3033 RMK A01 T01200042  RH  059%=      5-min Rain = 0
KST2 131934Z 12006KT 12/04 A3033 RMK A01 T01210041  RH  058%=      5-min Rain = 0
KST2 131935Z 12004KT 12/04 A3033 RMK A01 T01190040  RH  058%=      5-min Rain = 0
KST2 131936Z 13005KT 12/04 A3032 RMK A01 T01180040  RH  059%=      5-min Rain = 0
KST2 131937Z 16007KT 12/04 A3032 RMK A01 T01180041  RH  059%=      5-min Rain = 0
KST2 131938Z 15009KT 12/04 A3032 RMK A01 T01210044  RH  059%=      5-min Rain = 0
KST2 131939Z 14008KT 12/05 A3032 RMK A01 T01240045  RH  058%=      5-min Rain = 0
KST2 131940Z 14007KT 12/04 A3032 RMK A01 T01240044  RH  058%=      5-min Rain = 0
KST2 131941Z 13005KT 12/04 A3032 RMK A01 T01240043  RH  058%=      5-min Rain = 0
KST2 131942Z 13007KT 12/04 A3032 RMK A01 T01230043  RH  058%=      5-min Rain = 0
KST2 131943Z 12006KT 12/04 A3032 RMK A01 T01230044  RH  058%=      5-min Rain = 0
KST2 131944Z 15007KT 12/05 A3032 RMK A01 T01240045  RH  059%=      5-min Rain = 0
KST2 131945Z 17006KT 13/05 A3032 RMK A01 T01280047  RH  058%=      5-min Rain = 0
KST2 131946Z 16006KT 13/05 A3032 RMK A01 T01300045  RH  057%=      5-min Rain = 0
KST2 131947Z 15007KT 13/05 A3031 RMK A01 T01290045  RH  057%=      5-min Rain = 0
KST2 131948Z 15006KT 13/05 A3031 RMK A01 T01280045  RH  057%=      5-min Rain = 0
KST2 131949Z 14007KT 13/05 A3031 RMK A01 T01290046  RH  057%=      5-min Rain = 0
KST2 131950Z 13007KT 13/05 A3031 RMK A01 T01290046  RH  057%=      5-min Rain = 0
KST2 131951Z 15009KT 13/05 A3031 RMK A01 T01300047  RH  057%=      5-min Rain = 0
KST2 131952Z 15009KT 13/05 A3031 RMK A01 T01340048  RH  056%=      5-min Rain = 0
KST2 131953Z 15004KT 13/04 A3031 RMK A01 T01320044  RH  055%=      5-min Rain = 0
KST2 131954Z 15005KT 13/05 A3031 RMK A01 T01290045  RH  057%=      5-min Rain = 0
KST2 131955Z 12006KT 13/05 A3031 RMK A01 T01300045  RH  057%=      5-min Rain = 0
KST2 131956Z 13006KT 13/04 A3031 RMK A01 T01300044  RH  056%=      5-min Rain = 0
KST2 131957Z 15007KT 13/04 A3031 RMK A01 T01270044  RH  057%=      5-min Rain = 0
KST2 131958Z 15007KT 13/05 A3031 RMK A01 T01280047  RH  058%=      5-min Rain = 0
KST2 131959Z 16008KT 13/05 A3031 RMK A01 T01290048  RH  058%=      5-min Rain = 0
KST2 132000Z 17009KT 13/05 A303 RMK A01 T01320048  RH  057%=      5-min Rain = 0
KST2 132001Z 17006KT 13/05 A303 RMK A01 T01320048  RH  057%=      5-min Rain = 0
KST2 132002Z 17007KT 13/05 A303 RMK A01 T01320048  RH  057%=      5-min Rain = 0
KST2 132003Z 16008KT 13/05 A303 RMK A01 T01330048  RH  056%=      5-min Rain = 0
KST2 132004Z 15007KT 13/05 A303 RMK A01 T01340049  RH  056%=      5-min Rain = 0
KST2 132005Z 16005KT 13/05 A303 RMK A01 T01340048  RH  056%=      5-min Rain = 0
KST2 132006Z 16006KT 13/05 A303 RMK A01 T01330048  RH  056%=      5-min Rain = 0
KST2 132007Z 17006KT 13/05 A303 RMK A01 T01340048  RH  056%=      5-min Rain = 0
KST2 132008Z 14008KT 13/05 A303 RMK A01 T01340048  RH  056%=      5-min Rain = 0
KST2 132009Z 15008KT 14/05 A303 RMK A01 T01360048  RH  055%=      5-min Rain = 0
KST2 132010Z 15008KT 14/05 A303 RMK A01 T01360048  RH  055%=      5-min Rain = 0
KST2 132011Z 15004KT 14/05 A303 RMK A01 T01370049  RH  055%=      5-min Rain = 0
KST2 132012Z 15005KT 14/05 A303 RMK A01 T01370048  RH  055%=      5-min Rain = 0
KST2 132013Z 14005KT 14/05 A303 RMK A01 T01370049  RH  055%=      5-min Rain = 0
KST2 132014Z 15005KT 14/05 A303 RMK A01 T01370048  RH  055%=      5-min Rain = 0
KST2 132015Z 15007KT 14/05 A303 RMK A01 T01350048  RH  056%=      5-min Rain = 0
KST2 132016Z 16010KT 14/05 A303 RMK A01 T01380050  RH  056%=      5-min Rain = 0
KST2 132017Z 15007KT 14/05 A303 RMK A01 T01360049  RH  055%=      5-min Rain = 0
KST2 132018Z 13006KT 14/05 A303 RMK A01 T01360049  RH  056%=      5-min Rain = 0
KST2 132019Z 14006KT 14/05 A303 RMK A01 T01370049  RH  055%=      5-min Rain = 0
KST2 132020Z 18005KT 14/05 A303 RMK A01 T01370049  RH  055%=      5-min Rain = 0
KST2 132021Z 16006KT 14/05 A303 RMK A01 T01370049  RH  055%=      5-min Rain = 0
KST2 132022Z 15006KT 14/05 A303 RMK A01 T01370049  RH  055%=      5-min Rain = 0
KST2 132023Z 15007KT 14/05 A303 RMK A01 T01390050  RH  055%=      5-min Rain = 0
KST2 132024Z 16008KT 14/05 A303 RMK A01 T01420053  RH  055%=      5-min Rain = 0
KST2 132025Z 14008KT 14/05 A303 RMK A01 T01440051  RH  054%=      5-min Rain = 0
KST2 132026Z 14006KT 14/05 A303 RMK A01 T01410049  RH  054%=      5-min Rain = 0
KST2 132027Z 12005KT 14/05 A303 RMK A01 T01390049  RH  055%=      5-min Rain = 0
KST2 132028Z 15005KT 14/05 A303 RMK A01 T01380049  RH  055%=      5-min Rain = 0
KST2 132029Z 18008KT 14/05 A303 RMK A01 T01380051  RH  056%=      5-min Rain = 0
KST2 132030Z 19006KT 14/05 A303 RMK A01 T01400052  RH  055%=      5-min Rain = 0
KST2 132031Z 19005KT 14/05 A303 RMK A01 T01410052  RH  055%=      5-min Rain = 0
KST2 132032Z 18008KT 14/05 A303 RMK A01 T01400052  RH  055%=      5-min Rain = 0
KST2 132033Z 17006KT 14/05 A303 RMK A01 T01400052  RH  055%=      5-min Rain = 0
KST2 132034Z 17004KT 14/05 A303 RMK A01 T01400052  RH  056%=      5-min Rain = 0
KST2 132035Z 17006KT 14/05 A303 RMK A01 T01400052  RH  055%=      5-min Rain = 0
KST2 132036Z 18006KT 14/05 A303 RMK A01 T01420053  RH  055%=      5-min Rain = 0
KST2 132037Z 18008KT 14/05 A303 RMK A01 T01440053  RH  054%=      5-min Rain = 0
KST2 132038Z 18006KT 14/05 A303 RMK A01 T01430052  RH  054%=      5-min Rain = 0
KST2 132039Z 17006KT 14/05 A303 RMK A01 T01430053  RH  055%=      5-min Rain = 0
KST2 132040Z 16007KT 15/05 A303 RMK A01 T01450053  RH  054%=      5-min Rain = 0
KST2 132041Z 16007KT 15/05 A303 RMK A01 T01450053  RH  054%=      5-min Rain = 0
KST2 132042Z 18008KT 15/05 A303 RMK A01 T01460054  RH  054%=      5-min Rain = 0
KST2 132043Z 18008KT 15/05 A3029 RMK A01 T01480054  RH  053%=      5-min Rain = 0
KST2 132044Z 18008KT 15/06 A3029 RMK A01 T01500055  RH  053%=      5-min Rain = 0
KST2 132045Z 17008KT 15/06 A3029 RMK A01 T01500055  RH  053%=      5-min Rain = 0
KST2 132046Z 16010KT 15/06 A3029 RMK A01 T01490055  RH  053%=      5-min Rain = 0
KST2 132047Z 17008KT 15/06 A3029 RMK A01 T01500055  RH  053%=      5-min Rain = 0
KST2 132048Z 16008KT 15/06 A3029 RMK A01 T01500055  RH  053%=      5-min Rain = 0
KST2 132049Z 17008KT 15/06 A3029 RMK A01 T01510056  RH  053%=      5-min Rain = 0
KST2 132050Z 17006KT 15/05 A3029 RMK A01 T01500054  RH  053%=      5-min Rain = 0
KST2 132051Z 17004KT 15/06 A3029 RMK A01 T01490055  RH  053%=      5-min Rain = 0
KST2 132052Z 16006KT 15/06 A3029 RMK A01 T01480055  RH  054%=      5-min Rain = 0
KST2 132053Z 15009KT 15/06 A3029 RMK A01 T01500056  RH  053%=      5-min Rain = 0
KST2 132054Z 18009KT 15/06 A3029 RMK A01 T01500056  RH  053%=      5-min Rain = 0
KST2 132055Z 17007KT 15/06 A3029 RMK A01 T01510055  RH  053%=      5-min Rain = 0
KST2 132056Z 16007KT 15/06 A3029 RMK A01 T01510055  RH  053%=      5-min Rain = 0
KST2 132057Z 17008KT 15/06 A3029 RMK A01 T01510056  RH  053%=      5-min Rain = 0
KST2 132058Z 18007KT 15/06 A3029 RMK A01 T01530057  RH  053%=      5-min Rain = 0
KST2 132059Z 19006KT 15/06 A3029 RMK A01 T01530056  RH  052%=      5-min Rain = 0
KST2 132100Z 18006KT 15/06 A3029 RMK A01 T01540057  RH  052%=      5-min Rain = 0
KST2 132101Z 14004KT 16/06 A3029 RMK A01 T01560057  RH  052%=      5-min Rain = 0
KST2 132102Z 17003KT 16/06 A3029 RMK A01 T01570056  RH  051%=      5-min Rain = 0
KST2 132103Z 20004KT 16/06 A3029 RMK A01 T01570056  RH  051%=      5-min Rain = 0
KST2 132104Z 17004KT 16/06 A3029 RMK A01 T01560056  RH  051%=      5-min Rain = 0
KST2 132105Z 17005KT 16/06 A3029 RMK A01 T01550056  RH  052%=      5-min Rain = 0
KST2 132106Z 17004KT 15/06 A3029 RMK A01 T01540055  RH  052%=      5-min Rain = 0
KST2 132107Z 18004KT 15/06 A3029 RMK A01 T01520055  RH  052%=      5-min Rain = 0
KST2 132108Z 16003KT 15/06 A3029 RMK A01 T01510055  RH  053%=      5-min Rain = 0
KST2 132109Z 19001KT 15/06 A3029 RMK A01 T01510056  RH  053%=      5-min Rain = 0
KST2 132110Z 15003KT 15/06 A3029 RMK A01 T01540057  RH  052%=      5-min Rain = 0
KST2 132111Z 19002KT 16/06 A3029 RMK A01 T01550057  RH  052%=      5-min Rain = 0
KST2 132112Z 21004KT 16/06 A3028 RMK A01 T01580059  RH  052%=      5-min Rain = 0
KST2 132113Z 20004KT 16/06 A3028 RMK A01 T01620060  RH  051%=      5-min Rain = 0
KST2 132114Z 16005KT 16/06 A3028 RMK A01 T01640061  RH  050%=      5-min Rain = 0
KST2 132115Z 15006KT 17/06 A3028 RMK A01 T01650060  RH  050%=      5-min Rain = 0
KST2 132116Z 15006KT 16/06 A3028 RMK A01 T01640060  RH  050%=      5-min Rain = 0
KST2 132117Z 15004KT 16/06 A3028 RMK A01 T01630059  RH  050%=      5-min Rain = 0
KST2 132118Z 16007KT 16/06 A3028 RMK A01 T01620060  RH  051%=      5-min Rain = 0
KST2 132119Z 14008KT 16/06 A3028 RMK A01 T01630060  RH  050%=      5-min Rain = 0
KST2 132120Z 15008KT 16/06 A3028 RMK A01 T01630059  RH  050%=      5-min Rain = 0
KST2 132121Z 16008KT 16/06 A3028 RMK A01 T01630059  RH  050%=      5-min Rain = 0
KST2 132122Z 13006KT 16/06 A3028 RMK A01 T01630059  RH  050%=      5-min Rain = 0
KST2 132123Z 14006KT 16/06 A3028 RMK A01 T01620060  RH  051%=      5-min Rain = 0
KST2 132124Z 16008KT 16/06 A3028 RMK A01 T01640060  RH  050%=      5-min Rain = 0
KST2 132125Z 15008KT 16/06 A3027 RMK A01 T01640059  RH  050%=      5-min Rain = 0
KST2 132126Z 14008KT 16/06 A3027 RMK A01 T01640060  RH  050%=      5-min Rain = 0
KST2 132127Z 15008KT 16/06 A3027 RMK A01 T01630059  RH  050%=      5-min Rain = 0
KST2 132128Z 16012KT 16/06 A3027 RMK A01 T01630060  RH  050%=      5-min Rain = 0
KST2 132129Z 17010KT 16/06 A3027 RMK A01 T01640060  RH  050%=      5-min Rain = 0
KST2 132130Z 18009KT 16/06 A3027 RMK A01 T01630059  RH  050%=      5-min Rain = 0
KST2 132131Z 19007KT 16/06 A3027 RMK A01 T01610059  RH  051%=      5-min Rain = 0
KST2 132132Z 18006KT 16/06 A3027 RMK A01 T01610059  RH  051%=      5-min Rain = 0
KST2 132133Z 13007KT 16/06 A3027 RMK A01 T01590059  RH  051%=      5-min Rain = 0
KST2 132134Z 16009KT 16/06 A3027 RMK A01 T01590059  RH  051%=      5-min Rain = 0
KST2 132135Z 16009KT 16/06 A3027 RMK A01 T01610060  RH  051%=      5-min Rain = 0
KST2 132136Z 16008KT 16/06 A3027 RMK A01 T01620060  RH  051%=      5-min Rain = 0
KST2 132137Z 16008KT 16/06 A3027 RMK A01 T01620059  RH  051%=      5-min Rain = 0
KST2 132138Z 15007KT 16/06 A3027 RMK A01 T01610059  RH  051%=      5-min Rain = 0
KST2 132139Z 16008KT 16/06 A3027 RMK A01 T01620059  RH  051%=      5-min Rain = 0
KST2 132140Z 16008KT 16/06 A3027 RMK A01 T01620059  RH  050%=      5-min Rain = 0
KST2 132141Z 17009KT 16/06 A3027 RMK A01 T01610059  RH  051%=      5-min Rain = 0
KST2 132142Z 16009KT 16/06 A3027 RMK A01 T01610059  RH  051%=      5-min Rain = 0
KST2 132143Z 16009KT 16/06 A3027 RMK A01 T01640059  RH  050%=      5-min Rain = 0
KST2 132144Z 17010KT 17/06 A3026 RMK A01 T01650059  RH  050%=      5-min Rain = 0
KST2 132145Z 16009KT 16/06 A3026 RMK A01 T01640059  RH  050%=      5-min Rain = 0
KST2 132146Z 16007KT 16/06 A3026 RMK A01 T01620059  RH  050%=      5-min Rain = 0
KST2 132147Z 17007KT 16/06 A3026 RMK A01 T01620059  RH  051%=      5-min Rain = 0
KST2 132148Z 17008KT 16/06 A3026 RMK A01 T01610060  RH  051%=      5-min Rain = 0
KST2 132149Z 16009KT 16/06 A3026 RMK A01 T01620060  RH  051%=      5-min Rain = 0
KST2 132150Z 16008KT 16/06 A3026 RMK A01 T01640061  RH  050%=      5-min Rain = 0
KST2 132151Z 15009KT 17/06 A3026 RMK A01 T01650061  RH  050%=      5-min Rain = 0
KST2 132152Z 15010KT 17/06 A3026 RMK A01 T01650061  RH  050%=      5-min Rain = 0
KST2 132153Z 15008KT 17/06 A3026 RMK A01 T01650061  RH  050%=      5-min Rain = 0
KST2 132154Z 14008KT 17/06 A3026 RMK A01 T01650061  RH  050%=      5-min Rain = 0
KST2 132155Z 14006KT 16/06 A3026 RMK A01 T01630061  RH  051%=      5-min Rain = 0
KST2 132156Z 15006KT 16/06 A3026 RMK A01 T01620061  RH  051%=      5-min Rain = 0
KST2 132157Z 15007KT 16/06 A3026 RMK A01 T01620061  RH  051%=      5-min Rain = 0
KST2 132158Z 15009KT 16/06 A3026 RMK A01 T01640062  RH  051%=      5-min Rain = 0
KST2 132159Z 15008KT 16/06 A3026 RMK A01 T01640062  RH  051%=      5-min Rain = 0
KST2 132200Z 15010KT 16/06 A3026 RMK A01 T01640062  RH  051%=      5-min Rain = 0
KST2 132201Z 15010KT 17/06 A3026 RMK A01 T01650062  RH  050%=      5-min Rain = 0
KST2 132202Z 14009KT 16/06 A3026 RMK A01 T01640061  RH  051%=      5-min Rain = 0
KST2 132203Z 15007KT 16/06 A3026 RMK A01 T01630061  RH  051%=      5-min Rain = 0
KST2 132204Z 16007KT 16/06 A3026 RMK A01 T01620061  RH  051%=      5-min Rain = 0
KST2 132205Z 15009KT 16/06 A3025 RMK A01 T01620062  RH  051%=      5-min Rain = 0
KST2 132206Z 17009KT 17/06 A3026 RMK A01 T01650062  RH  051%=      5-min Rain = 0
KST2 132207Z 17011KT 17/06 A3026 RMK A01 T01670062  RH  050%=      5-min Rain = 0
KST2 132208Z 18011KT 17/06 A3026 RMK A01 T01680062  RH  050%=      5-min Rain = 0
KST2 132209Z 17010KT 17/06 A3026 RMK A01 T01660062  RH  050%=      5-min Rain = 0
KST2 132210Z 18009KT 17/06 A3026 RMK A01 T01650062  RH  051%=      5-min Rain = 0
KST2 132211Z 18009KT 17/06 A3026 RMK A01 T01650063  RH  051%=      5-min Rain = 0
KST2 132212Z 17010KT 17/06 A3025 RMK A01 T01650063  RH  051%=      5-min Rain = 0
KST2 132213Z 17011KT 17/06 A3025 RMK A01 T01650063  RH  051%=      5-min Rain = 0
KST2 132214Z 17011KT 17/06 A3025 RMK A01 T01650063  RH  051%=      5-min Rain = 0
KST2 132215Z 16011KT 16/06 A3025 RMK A01 T01640063  RH  051%=      5-min Rain = 0
KST2 132216Z 15010KT 17/06 A3025 RMK A01 T01650063  RH  051%=      5-min Rain = 0
KST2 132217Z 15009KT 17/06 A3026 RMK A01 T01650063  RH  051%=      5-min Rain = 0
KST2 132218Z 16008KT 16/06 A3026 RMK A01 T01640063  RH  051%=      5-min Rain = 0
KST2 132219Z 17008KT 16/06 A3025 RMK A01 T01640063  RH  051%=      5-min Rain = 0
KST2 132220Z 15008KT 16/06 A3025 RMK A01 T01640063  RH  051%=      5-min Rain = 0
KST2 132221Z 16008KT 17/06 A3025 RMK A01 T01650064  RH  051%=      5-min Rain = 0
KST2 132222Z 15008KT 17/06 A3025 RMK A01 T01670064  RH  051%=      5-min Rain = 0
KST2 132223Z 15010KT 17/06 A3025 RMK A01 T01680063  RH  050%=      5-min Rain = 0
KST2 132224Z 15010KT 17/06 A3025 RMK A01 T01670063  RH  050%=      5-min Rain = 0
KST2 132225Z 16011KT 17/06 A3026 RMK A01 T01660063  RH  051%=      5-min Rain = 0
KST2 132226Z 16010KT 17/06 A3026 RMK A01 T01660063  RH  051%=      5-min Rain = 0
KST2 132227Z 15010KT 17/06 A3026 RMK A01 T01660063  RH  051%=      5-min Rain = 0
KST2 132228Z 14010KT 17/06 A3026 RMK A01 T01650063  RH  051%=      5-min Rain = 0
KST2 132229Z 14010KT 17/06 A3026 RMK A01 T01650063  RH  051%=      5-min Rain = 0
KST2 132230Z 15011KT 17/06 A3026 RMK A01 T01650064  RH  051%=      5-min Rain = 0
KST2 132231Z 15010KT 17/06 A3026 RMK A01 T01650063  RH  051%=      5-min Rain = 0
KST2 132232Z 15010KT 17/06 A3025 RMK A01 T01650063  RH  051%=      5-min Rain = 0
KST2 132233Z 16010KT 17/06 A3025 RMK A01 T01660064  RH  051%=      5-min Rain = 0
KST2 132234Z 15010KT 17/06 A3025 RMK A01 T01670064  RH  051%=      5-min Rain = 0
KST2 132235Z 14012KT 17/06 A3025 RMK A01 T01680064  RH  050%=      5-min Rain = 0
KST2 132236Z 15010KT 17/06 A3025 RMK A01 T01680064  RH  050%=      5-min Rain = 0
KST2 132237Z 15012KT 17/06 A3025 RMK A01 T01690064  RH  050%=      5-min Rain = 0
KST2 132238Z 15012KT 17/06 A3025 RMK A01 T01670064  RH  051%=      5-min Rain = 0
KST2 132239Z 15013KT 17/06 A3025 RMK A01 T01660064  RH  051%=      5-min Rain = 0
KST2 132240Z 15012KT 17/06 A3025 RMK A01 T01650064  RH  051%=      5-min Rain = 0
KST2 132241Z 15011KT 16/06 A3025 RMK A01 T01640064  RH  051%=      5-min Rain = 0
KST2 132242Z 15010KT 17/06 A3025 RMK A01 T01650064  RH  051%=      5-min Rain = 0
KST2 132243Z 16010KT 17/07 A3025 RMK A01 T01650065  RH  051%=      5-min Rain = 0
KST2 132244Z 16012KT 17/07 A3025 RMK A01 T01670065  RH  051%=      5-min Rain = 0
KST2 132245Z 16013KT 17/07 A3025 RMK A01 T01680065  RH  051%=      5-min Rain = 0
KST2 132246Z 16012KT 17/07 A3025 RMK A01 T01670066  RH  051%=      5-min Rain = 0
KST2 132247Z 16012KT 17/07 A3025 RMK A01 T01670066  RH  051%=      5-min Rain = 0
KST2 132248Z 17010KT 17/07 A3025 RMK A01 T01670066  RH  051%=      5-min Rain = 0
KST2 132249Z 15009KT 17/07 A3025 RMK A01 T01660065  RH  051%=      5-min Rain = 0
KST2 132250Z 15009KT 17/07 A3025 RMK A01 T01670065  RH  051%=      5-min Rain = 0
KST2 132251Z 15011KT 17/07 A3025 RMK A01 T01680065  RH  051%=      5-min Rain = 0
KST2 132252Z 15010KT 17/07 A3025 RMK A01 T01680065  RH  051%=      5-min Rain = 0
KST2 132253Z 15010KT 17/07 A3025 RMK A01 T01670065  RH  051%=      5-min Rain = 0
KST2 132254Z 15010KT 17/07 A3025 RMK A01 T01670065  RH  051%=      5-min Rain = 0
KST2 132255Z 15009KT 17/07 A3025 RMK A01 T01670066  RH  051%=      5-min Rain = 0
KST2 132256Z 16009KT 17/07 A3026 RMK A01 T01660066  RH  051%=      5-min Rain = 0
KST2 132257Z 16011KT 17/07 A3026 RMK A01 T01660066  RH  052%=      5-min Rain = 0
KST2 132258Z 16009KT 17/07 A3026 RMK A01 T01650066  RH  052%=      5-min Rain = 0
KST2 132259Z 16009KT 16/07 A3026 RMK A01 T01640066  RH  052%=      5-min Rain = 0
KST2 132300Z 16011KT 17/07 A3026 RMK A01 T01650066  RH  052%=      5-min Rain = 0
KST2 132301Z 16010KT 17/07 A3026 RMK A01 T01650067  RH  052%=      5-min Rain = 0
KST2 132302Z 16010KT 17/07 A3026 RMK A01 T01650066  RH  052%=      5-min Rain = 0
KST2 132303Z 16010KT 17/07 A3026 RMK A01 T01660066  RH  052%=      5-min Rain = 0
KST2 132304Z 16010KT 17/07 A3026 RMK A01 T01660067  RH  052%=      5-min Rain = 0
KST2 132305Z 15009KT 17/07 A3026 RMK A01 T01650067  RH  052%=      5-min Rain = 0
KST2 132306Z 16009KT 17/07 A3026 RMK A01 T01650067  RH  052%=      5-min Rain = 0
KST2 132307Z 16010KT 17/07 A3026 RMK A01 T01650066  RH  052%=      5-min Rain = 0
KST2 132308Z 15009KT 17/07 A3026 RMK A01 T01650067  RH  052%=      5-min Rain = 0
KST2 132309Z 16010KT 17/07 A3026 RMK A01 T01650067  RH  052%=      5-min Rain = 0
KST2 132310Z 16008KT 17/07 A3027 RMK A01 T01650067  RH  052%=      5-min Rain = 0
KST2 132311Z 15008KT 16/07 A3027 RMK A01 T01640067  RH  053%=      5-min Rain = 0
KST2 132312Z 16008KT 16/07 A3027 RMK A01 T01640066  RH  052%=      5-min Rain = 0
KST2 132313Z 15008KT 17/07 A3026 RMK A01 T01650066  RH  052%=      5-min Rain = 0
KST2 132314Z 15008KT 17/07 A3026 RMK A01 T01650067  RH  052%=      5-min Rain = 0
KST2 132315Z 15007KT 17/07 A3026 RMK A01 T01650067  RH  052%=      5-min Rain = 0
KST2 132316Z 15008KT 17/07 A3026 RMK A01 T01660067  RH  052%=      5-min Rain = 0
KST2 132317Z 15007KT 17/07 A3026 RMK A01 T01660067  RH  052%=      5-min Rain = 0
KST2 132318Z 15007KT 17/07 A3026 RMK A01 T01660067  RH  052%=      5-min Rain = 0
KST2 132319Z 16008KT 17/07 A3026 RMK A01 T01670067  RH  052%=      5-min Rain = 0
KST2 132320Z 15009KT 17/07 A3026 RMK A01 T01670067  RH  052%=      5-min Rain = 0
KST2 132321Z 15009KT 17/07 A3026 RMK A01 T01680068  RH  052%=      5-min Rain = 0
KST2 132322Z 15010KT 17/07 A3026 RMK A01 T01670068  RH  052%=      5-min Rain = 0
KST2 132323Z 14009KT 17/07 A3026 RMK A01 T01660068  RH  052%=      5-min Rain = 0
KST2 132324Z 14011KT 17/07 A3026 RMK A01 T01660067  RH  052%=      5-min Rain = 0
KST2 132325Z 13010KT 17/07 A3026 RMK A01 T01670068  RH  052%=      5-min Rain = 0
KST2 132326Z 14011KT 17/07 A3026 RMK A01 T01670068  RH  052%=      5-min Rain = 0
KST2 132327Z 15011KT 17/07 A3026 RMK A01 T01670068  RH  052%=      5-min Rain = 0
KST2 132328Z 15010KT 17/07 A3026 RMK A01 T01680069  RH  052%=      5-min Rain = 0
KST2 132329Z 14009KT 17/07 A3026 RMK A01 T01680069  RH  052%=      5-min Rain = 0
KST2 132330Z 15009KT 17/07 A3026 RMK A01 T01680068  RH  052%=      5-min Rain = 0
KST2 132331Z 15009KT 17/07 A3026 RMK A01 T01680067  RH  051%=      5-min Rain = 0
KST2 132332Z 14011KT 17/07 A3026 RMK A01 T01690068  RH  051%=      5-min Rain = 0
KST2 132333Z 15011KT 17/07 A3026 RMK A01 T01690069  RH  052%=      5-min Rain = 0
KST2 132334Z 14010KT 17/07 A3026 RMK A01 T01670069  RH  052%=      5-min Rain = 0
KST2 132335Z 14010KT 17/07 A3026 RMK A01 T01670069  RH  052%=      5-min Rain = 0
KST2 132336Z 14010KT 17/07 A3026 RMK A01 T01670069  RH  052%=      5-min Rain = 0
KST2 132337Z 13010KT 17/07 A3026 RMK A01 T01670068  RH  052%=      5-min Rain = 0
KST2 132338Z 13010KT 17/07 A3026 RMK A01 T01660067  RH  052%=      5-min Rain = 0
KST2 132339Z 13010KT 16/07 A3026 RMK A01 T01640066  RH  052%=      5-min Rain = 0
KST2 132340Z 13010KT 16/07 A3026 RMK A01 T01630066  RH  053%=      5-min Rain = 0
KST2 132341Z 12012KT 16/07 A3026 RMK A01 T01630066  RH  053%=      5-min Rain = 0
KST2 132342Z 12012KT 16/07 A3026 RMK A01 T01620066  RH  053%=      5-min Rain = 0
KST2 132343Z 12011KT 16/07 A3026 RMK A01 T01600066  RH  054%=      5-min Rain = 0
KST2 132344Z 13012KT 16/07 A3026 RMK A01 T01600066  RH  054%=      5-min Rain = 0
KST2 132345Z 12011KT 16/07 A3026 RMK A01 T01590066  RH  054%=      5-min Rain = 0
KST2 132346Z 12012KT 16/07 A3026 RMK A01 T01590066  RH  054%=      5-min Rain = 0
KST2 132347Z 12012KT 16/07 A3026 RMK A01 T01590066  RH  054%=      5-min Rain = 0
KST2 132348Z 13010KT 16/07 A3025 RMK A01 T01590067  RH  054%=      5-min Rain = 0
KST2 132349Z 12010KT 16/07 A3025 RMK A01 T01590066  RH  054%=      5-min Rain = 0
KST2 132350Z 12010KT 16/07 A3025 RMK A01 T01590066  RH  054%=      5-min Rain = 0
KST2 132351Z 12011KT 16/07 A3025 RMK A01 T01590067  RH  054%=      5-min Rain = 0
KST2 132352Z 12011KT 16/07 A3025 RMK A01 T01580066  RH  054%=      5-min Rain = 0
KST2 132353Z 13010KT 16/07 A3025 RMK A01 T01580066  RH  054%=      5-min Rain = 0
KST2 132354Z 13010KT 16/07 A3025 RMK A01 T01580066  RH  054%=      5-min Rain = 0
KST2 132355Z 13010KT 16/07 A3025 RMK A01 T01580065  RH  054%=      5-min Rain = 0
KST2 132356Z 13009KT 16/07 A3026 RMK A01 T01580065  RH  054%=      5-min Rain = 0
KST2 132357Z 13010KT 16/07 A3026 RMK A01 T01580065  RH  054%=      5-min Rain = 0
KST2 132358Z 12010KT 16/07 A3026 RMK A01 T01580066  RH  054%=      5-min Rain = 0
KST2 132359Z 12009KT 16/07 A3026 RMK A01 T01570066  RH  054%=      5-min Rain = 0
KST2 140000Z 12010KT 16/07 A3026 RMK A01 T01580066  RH  054%=      5-min Rain = 0
KST2 140001Z 13009KT 16/07 A3026 RMK A01 T01570066  RH  055%=      5-min Rain = 0
KST2 140002Z 12010KT 16/07 A3026 RMK A01 T01570067  RH  055%=      5-min Rain = 0
KST2 140003Z 12009KT 16/07 A3026 RMK A01 T01570066  RH  055%=      5-min Rain = 0
KST2 140004Z 12011KT 16/07 A3027 RMK A01 T01560067  RH  055%=      5-min Rain = 0
KST2 140005Z 13009KT 16/07 A3027 RMK A01 T01560067  RH  055%=      5-min Rain = 0
KST2 140011Z 13010KT 15/07 A3026 RMK A01 T01540068  RH  056%=      5-min Rain = 0
KST2 140012Z 13010KT 15/07 A3026 RMK A01 T01540068  RH  057%=      5-min Rain = 0
KST2 140013Z 13011KT 15/07 A3026 RMK A01 T01530069  RH  057%=      5-min Rain = 0
KST2 140014Z 13009KT 15/07 A3026 RMK A01 T01530069  RH  057%=      5-min Rain = 0
KST2 140015Z 13009KT 15/07 A3026 RMK A01 T01520069  RH  057%=      5-min Rain = 0
KST2 140016Z 13011KT 15/07 A3026 RMK A01 T01520068  RH  057%=      5-min Rain = 0
KST2 140017Z 13010KT 15/07 A3026 RMK A01 T01520068  RH  057%=      5-min Rain = 0
KST2 140018Z 12008KT 15/07 A3026 RMK A01 T01510068  RH  057%=      5-min Rain = 0
KST2 140019Z 13011KT 15/07 A3026 RMK A01 T01510067  RH  057%=      5-min Rain = 0
KST2 140020Z 12010KT 15/07 A3026 RMK A01 T01510067  RH  057%=      5-min Rain = 0
KST2 140021Z 12010KT 15/07 A3026 RMK A01 T01510067  RH  057%=      5-min Rain = 0
KST2 140022Z 12010KT 15/07 A3026 RMK A01 T01510067  RH  057%=      5-min Rain = 0
KST2 140023Z 12010KT 15/07 A3026 RMK A01 T01510066  RH  057%=      5-min Rain = 0
KST2 140024Z 12010KT 15/07 A3026 RMK A01 T01510066  RH  057%=      5-min Rain = 0
KST2 140025Z 13010KT 15/07 A3026 RMK A01 T01510066  RH  057%=      5-min Rain = 0
KST2 140026Z 12009KT 15/07 A3026 RMK A01 T01510067  RH  057%=      5-min Rain = 0
KST2 140027Z 13009KT 15/07 A3026 RMK A01 T01510066  RH  057%=      5-min Rain = 0
KST2 140028Z 13009KT 15/07 A3026 RMK A01 T01500066  RH  057%=      5-min Rain = 0
KST2 140029Z 13010KT 15/07 A3026 RMK A01 T01500065  RH  057%=      5-min Rain = 0
KST2 140030Z 13010KT 15/07 A3026 RMK A01 T01500066  RH  057%=      5-min Rain = 0
KST2 140031Z 13008KT 15/07 A3026 RMK A01 T01500066  RH  057%=      5-min Rain = 0
KST2 140032Z 13008KT 15/06 A3026 RMK A01 T01500064  RH  056%=      5-min Rain = 0
KST2 140033Z 14008KT 15/06 A3026 RMK A01 T01490064  RH  057%=      5-min Rain = 0
KST2 140034Z 13008KT 15/07 A3026 RMK A01 T01490065  RH  057%=      5-min Rain = 0
KST2 140035Z 14008KT 15/07 A3026 RMK A01 T01490065  RH  057%=      5-min Rain = 0
KST2 140036Z 13008KT 15/07 A3026 RMK A01 T01490065  RH  057%=      5-min Rain = 0
KST2 140037Z 13008KT 15/06 A3026 RMK A01 T01490064  RH  057%=      5-min Rain = 0
KST2 140038Z 13007KT 15/06 A3026 RMK A01 T01480064  RH  057%=      5-min Rain = 0
KST2 140039Z 12007KT 15/06 A3026 RMK A01 T01480063  RH  057%=      5-min Rain = 0
KST2 140040Z 12008KT 15/07 A3026 RMK A01 T01470066  RH  058%=      5-min Rain = 0
KST2 140041Z 13008KT 15/07 A3026 RMK A01 T01450065  RH  059%=      5-min Rain = 0
KST2 140042Z 13008KT 15/07 A3026 RMK A01 T01450066  RH  059%=      5-min Rain = 0
KST2 140043Z 13008KT 14/07 A3026 RMK A01 T01440066  RH  059%=      5-min Rain = 0
KST2 140044Z 13008KT 14/07 A3026 RMK A01 T01440068  RH  060%=      5-min Rain = 0
KST2 140045Z 13007KT 14/07 A3027 RMK A01 T01440068  RH  060%=      5-min Rain = 0
KST2 140046Z 13006KT 14/07 A3027 RMK A01 T01440067  RH  060%=      5-min Rain = 0
KST2 140047Z 13006KT 14/07 A3027 RMK A01 T01440066  RH  060%=      5-min Rain = 0
KST2 140048Z 13007KT 14/07 A3027 RMK A01 T01430066  RH  060%=      5-min Rain = 0
KST2 140049Z 13007KT 14/07 A3027 RMK A01 T01430068  RH  060%=      5-min Rain = 0
KST2 140050Z 13007KT 14/07 A3027 RMK A01 T01430068  RH  060%=      5-min Rain = 0
KST2 140051Z 13007KT 14/07 A3027 RMK A01 T01440067  RH  060%=      5-min Rain = 0
KST2 140052Z 13007KT 14/07 A3027 RMK A01 T01440067  RH  060%=      5-min Rain = 0
KST2 140053Z 13006KT 14/07 A3027 RMK A01 T01430066  RH  060%=      5-min Rain = 0
KST2 140054Z 13007KT 14/07 A3027 RMK A01 T01430065  RH  059%=      5-min Rain = 0
KST2 140055Z 14007KT 14/06 A3027 RMK A01 T01430063  RH  059%=      5-min Rain = 0
KST2 140056Z 14008KT 14/06 A3027 RMK A01 T01430063  RH  059%=      5-min Rain = 0
KST2 140057Z 14008KT 14/06 A3027 RMK A01 T01430063  RH  059%=      5-min Rain = 0
KST2 140058Z 14008KT 14/06 A3027 RMK A01 T01430062  RH  058%=      5-min Rain = 0
KST2 140059Z 14008KT 14/06 A3027 RMK A01 T01430062  RH  058%=      5-min Rain = 0
KST2 140100Z 14008KT 14/06 A3027 RMK A01 T01430062  RH  058%=      5-min Rain = 0
KST2 140101Z 14008KT 14/06 A3026 RMK A01 T01430062  RH  058%=      5-min Rain = 0
KST2 140102Z 14008KT 14/06 A3026 RMK A01 T01430062  RH  058%=      5-min Rain = 0
KST2 140103Z 14008KT 14/06 A3026 RMK A01 T01430062  RH  058%=      5-min Rain = 0
KST2 140104Z 14009KT 14/06 A3026 RMK A01 T01420062  RH  058%=      5-min Rain = 0
KST2 140105Z 14008KT 14/06 A3026 RMK A01 T01420062  RH  058%=      5-min Rain = 0
KST2 140106Z 14008KT 14/06 A3026 RMK A01 T01420061  RH  058%=      5-min Rain = 0
KST2 140107Z 14008KT 14/06 A3026 RMK A01 T01420062  RH  059%=      5-min Rain = 0
KST2 140108Z 14009KT 14/06 A3026 RMK A01 T01420062  RH  058%=      5-min Rain = 0
KST2 140109Z 14008KT 14/06 A3026 RMK A01 T01420063  RH  059%=      5-min Rain = 0
KST2 140110Z 14009KT 14/06 A3026 RMK A01 T01420062  RH  058%=      5-min Rain = 0
KST2 140111Z 14009KT 14/06 A3026 RMK A01 T01410062  RH  059%=      5-min Rain = 0
KST2 140112Z 14008KT 14/06 A3026 RMK A01 T01410062  RH  059%=      5-min Rain = 0
KST2 140113Z 14009KT 14/06 A3026 RMK A01 T01420062  RH  059%=      5-min Rain = 0
KST2 140114Z 14009KT 14/06 A3026 RMK A01 T01410062  RH  059%=      5-min Rain = 0
KST2 140115Z 14008KT 14/06 A3026 RMK A01 T01410062  RH  059%=      5-min Rain = 0
KST2 140116Z 14008KT 14/06 A3026 RMK A01 T01400061  RH  059%=      5-min Rain = 0
KST2 140117Z 14008KT 14/06 A3026 RMK A01 T01400060  RH  059%=      5-min Rain = 0
KST2 140118Z 14008KT 14/06 A3026 RMK A01 T01390061  RH  059%=      5-min Rain = 0
KST2 140119Z 13007KT 14/06 A3027 RMK A01 T01390061  RH  059%=      5-min Rain = 0
KST2 140120Z 13007KT 14/06 A3027 RMK A01 T01390060  RH  059%=      5-min Rain = 0
KST2 140121Z 13008KT 14/06 A3027 RMK A01 T01380061  RH  060%=      5-min Rain = 0
KST2 140122Z 13008KT 14/06 A3027 RMK A01 T01370062  RH  061%=      5-min Rain = 0
KST2 140123Z 13008KT 14/06 A3027 RMK A01 T01360062  RH  061%=      5-min Rain = 0
KST2 140124Z 13007KT 14/06 A3026 RMK A01 T01360062  RH  061%=      5-min Rain = 0
KST2 140125Z 13007KT 14/06 A3026 RMK A01 T01350061  RH  061%=      5-min Rain = 0
KST2 140126Z 13007KT 13/06 A3026 RMK A01 T01340061  RH  061%=      5-min Rain = 0
KST2 140127Z 13007KT 13/06 A3026 RMK A01 T01340062  RH  061%=      5-min Rain = 0
KST2 140128Z 14008KT 13/06 A3026 RMK A01 T01340061  RH  061%=      5-min Rain = 0
KST2 140129Z 14009KT 13/06 A3026 RMK A01 T01330061  RH  062%=      5-min Rain = 0
KST2 140130Z 14009KT 13/06 A3026 RMK A01 T01330062  RH  062%=      5-min Rain = 0
KST2 140131Z 14008KT 13/06 A3026 RMK A01 T01330062  RH  062%=      5-min Rain = 0
KST2 140132Z 14007KT 13/06 A3026 RMK A01 T01320060  RH  062%=      5-min Rain = 0
KST2 140133Z 14007KT 13/06 A3026 RMK A01 T01320061  RH  062%=      5-min Rain = 0
KST2 140134Z 14008KT 13/06 A3026 RMK A01 T01320061  RH  062%=      5-min Rain = 0
KST2 140135Z 14009KT 13/06 A3026 RMK A01 T01310061  RH  062%=      5-min Rain = 0
KST2 140136Z 14008KT 13/06 A3026 RMK A01 T01310061  RH  062%=      5-min Rain = 0
KST2 140137Z 13009KT 13/06 A3026 RMK A01 T01310061  RH  062%=      5-min Rain = 0
KST2 140138Z 13008KT 13/06 A3026 RMK A01 T01310062  RH  063%=      5-min Rain = 0
KST2 140139Z 13008KT 13/06 A3026 RMK A01 T01310061  RH  062%=      5-min Rain = 0
KST2 140140Z 13008KT 13/06 A3026 RMK A01 T01310061  RH  062%=      5-min Rain = 0
KST2 140141Z 13008KT 13/06 A3026 RMK A01 T01300061  RH  063%=      5-min Rain = 0
KST2 140142Z 13008KT 13/06 A3026 RMK A01 T01300062  RH  063%=      5-min Rain = 0
KST2 140143Z 13008KT 13/06 A3026 RMK A01 T01300061  RH  063%=      5-min Rain = 0
KST2 140144Z 14008KT 13/06 A3026 RMK A01 T01300061  RH  063%=      5-min Rain = 0
KST2 140145Z 14008KT 13/06 A3026 RMK A01 T01300062  RH  064%=      5-min Rain = 0
KST2 140146Z 14008KT 13/06 A3026 RMK A01 T01300062  RH  064%=      5-min Rain = 0
KST2 140147Z 14009KT 13/06 A3026 RMK A01 T01300062  RH  063%=      5-min Rain = 0
KST2 140148Z 14010KT 13/06 A3026 RMK A01 T01300063  RH  064%=      5-min Rain = 0
KST2 140149Z 14009KT 13/06 A3026 RMK A01 T01290063  RH  064%=      5-min Rain = 0
KST2 140150Z 14010KT 13/06 A3027 RMK A01 T01300063  RH  064%=      5-min Rain = 0
KST2 140151Z 14010KT 13/06 A3027 RMK A01 T01300063  RH  064%=      5-min Rain = 0
KST2 140152Z 14009KT 13/06 A3027 RMK A01 T01300064  RH  064%=      5-min Rain = 0
KST2 140153Z 14010KT 13/06 A3027 RMK A01 T01300064  RH  064%=      5-min Rain = 0
KST2 140154Z 14010KT 13/06 A3027 RMK A01 T01300064  RH  064%=      5-min Rain = 0
KST2 140155Z 14010KT 13/07 A3027 RMK A01 T01300065  RH  064%=      5-min Rain = 0
KST2 140156Z 14010KT 13/06 A3027 RMK A01 T01300064  RH  064%=      5-min Rain = 0
KST2 140157Z 13009KT 13/06 A3027 RMK A01 T01300064  RH  064%=      5-min Rain = 0
KST2 140158Z 13010KT 13/07 A3027 RMK A01 T01290066  RH  065%=      5-min Rain = 0
KST2 140159Z 13010KT 13/07 A3027 RMK A01 T01270066  RH  066%=      5-min Rain = 0
KST2 140200Z 13010KT 13/07 A3027 RMK A01 T01250066  RH  067%=      5-min Rain = 0
KST2 140201Z 13010KT 12/07 A3027 RMK A01 T01240066  RH  068%=      5-min Rain = 0
KST2 140202Z 13010KT 12/07 A3027 RMK A01 T01230066  RH  068%=      5-min Rain = 0
KST2 140203Z 13012KT 12/07 A3027 RMK A01 T01230066  RH  068%=      5-min Rain = 0
KST2 140204Z 13011KT 12/07 A3027 RMK A01 T01230067  RH  069%=      5-min Rain = 0
KST2 140205Z 13012KT 12/07 A3027 RMK A01 T01230067  RH  069%=      5-min Rain = 0
KST2 140206Z 13009KT 12/07 A3027 RMK A01 T01230067  RH  069%=      5-min Rain = 0
KST2 140207Z 13010KT 12/07 A3027 RMK A01 T01230066  RH  068%=      5-min Rain = 0
KST2 140208Z 13011KT 12/07 A3027 RMK A01 T01230068  RH  069%=      5-min Rain = 0
KST2 140209Z 13010KT 12/07 A3026 RMK A01 T01220068  RH  070%=      5-min Rain = 0
KST2 140210Z 13011KT 12/07 A3026 RMK A01 T01220068  RH  069%=      5-min Rain = 0
KST2 140211Z 13011KT 12/07 A3026 RMK A01 T01220068  RH  070%=      5-min Rain = 0
KST2 140212Z 13011KT 12/07 A3026 RMK A01 T01210068  RH  070%=      5-min Rain = 0
KST2 140213Z 13011KT 12/07 A3026 RMK A01 T01210066  RH  069%=      5-min Rain = 0
KST2 140214Z 13011KT 12/07 A3026 RMK A01 T01200067  RH  070%=      5-min Rain = 0
KST2 140215Z 13011KT 12/07 A3026 RMK A01 T01200067  RH  070%=      5-min Rain = 0
KST2 140216Z 13010KT 12/07 A3026 RMK A01 T01200068  RH  070%=      5-min Rain = 0
KST2 140217Z 13010KT 12/07 A3026 RMK A01 T01190067  RH  070%=      5-min Rain = 0
KST2 140218Z 13010KT 12/07 A3026 RMK A01 T01190066  RH  070%=      5-min Rain = 0
KST2 140219Z 13011KT 12/07 A3026 RMK A01 T01190066  RH  070%=      5-min Rain = 0
KST2 140220Z 13010KT 12/07 A3027 RMK A01 T01180066  RH  070%=      5-min Rain = 0
KST2 140221Z 13010KT 12/07 A3027 RMK A01 T01180067  RH  071%=      5-min Rain = 0
KST2 140222Z 13010KT 12/07 A3027 RMK A01 T01180066  RH  071%=      5-min Rain = 0
KST2 140223Z 13010KT 12/07 A3027 RMK A01 T01180066  RH  071%=      5-min Rain = 0
KST2 140224Z 13011KT 12/07 A3027 RMK A01 T01180067  RH  071%=      5-min Rain = 0
KST2 140225Z 13010KT 12/07 A3027 RMK A01 T01170067  RH  071%=      5-min Rain = 0
KST2 140226Z 13010KT 12/07 A3027 RMK A01 T01170066  RH  071%=      5-min Rain = 0
KST2 140227Z 13009KT 12/07 A3027 RMK A01 T01170066  RH  071%=      5-min Rain = 0
KST2 140228Z 13009KT 12/07 A3027 RMK A01 T01170066  RH  071%=      5-min Rain = 0
KST2 140229Z 13009KT 12/07 A3027 RMK A01 T01170065  RH  070%=      5-min Rain = 0
KST2 140230Z 13010KT 12/07 A3027 RMK A01 T01170066  RH  071%=      5-min Rain = 0
KST2 140231Z 13010KT 12/07 A3027 RMK A01 T01170067  RH  071%=      5-min Rain = 0
KST2 140232Z 14009KT 12/07 A3027 RMK A01 T01170066  RH  071%=      5-min Rain = 0
KST2 140233Z 14009KT 12/07 A3027 RMK A01 T01170065  RH  071%=      5-min Rain = 0
KST2 140234Z 13009KT 12/07 A3027 RMK A01 T01170065  RH  071%=      5-min Rain = 0
KST2 140235Z 14010KT 12/07 A3027 RMK A01 T01170066  RH  071%=      5-min Rain = 0
KST2 140236Z 13009KT 12/07 A3027 RMK A01 T01170066  RH  071%=      5-min Rain = 0
KST2 140237Z 14010KT 12/07 A3027 RMK A01 T01170066  RH  071%=      5-min Rain = 0
KST2 140238Z 14009KT 12/07 A3027 RMK A01 T01170066  RH  071%=      5-min Rain = 0
KST2 140239Z 14010KT 12/07 A3027 RMK A01 T01170065  RH  071%=      5-min Rain = 0
KST2 140240Z 14011KT 12/07 A3027 RMK A01 T01160065  RH  071%=      5-min Rain = 0
KST2 140241Z 14011KT 12/07 A3027 RMK A01 T01160065  RH  071%=      5-min Rain = 0
KST2 140242Z 14011KT 12/07 A3027 RMK A01 T01160065  RH  071%=      5-min Rain = 0
KST2 140243Z 15011KT 12/07 A3027 RMK A01 T01160065  RH  071%=      5-min Rain = 0
KST2 140244Z 15010KT 12/06 A3027 RMK A01 T01150064  RH  071%=      5-min Rain = 0
KST2 140245Z 15011KT 12/06 A3027 RMK A01 T01150064  RH  071%=      5-min Rain = 0
KST2 140246Z 14011KT 12/06 A3027 RMK A01 T01150064  RH  071%=      5-min Rain = 0
KST2 140247Z 14011KT 12/06 A3027 RMK A01 T01150064  RH  071%=      5-min Rain = 0
KST2 140248Z 14013KT 12/07 A3027 RMK A01 T01150065  RH  071%=      5-min Rain = 0
KST2 140249Z 14013KT 12/07 A3027 RMK A01 T01150065  RH  072%=      5-min Rain = 0
KST2 140250Z 14013KT 11/07 A3027 RMK A01 T01140065  RH  071%=      5-min Rain = 0
KST2 140251Z 14010KT 12/07 A3027 RMK A01 T01150065  RH  071%=      5-min Rain = 0
KST2 140252Z 14011KT 12/06 A3027 RMK A01 T01150064  RH  071%=      5-min Rain = 0
KST2 140253Z 14011KT 11/06 A3027 RMK A01 T01140064  RH  071%=      5-min Rain = 0
KST2 140254Z 15011KT 11/06 A3027 RMK A01 T01140064  RH  071%=      5-min Rain = 0
KST2 140255Z 14011KT 12/06 A3027 RMK A01 T01150064  RH  071%=      5-min Rain = 0
KST2 140256Z 14011KT 11/07 A3027 RMK A01 T01140065  RH  071%=      5-min Rain = 0
KST2 140257Z 14010KT 11/07 A3027 RMK A01 T01140065  RH  071%=      5-min Rain = 0
KST2 140258Z 14011KT 12/07 A3027 RMK A01 T01150065  RH  071%=      5-min Rain = 0
KST2 140259Z 14010KT 12/07 A3027 RMK A01 T01150065  RH  071%=      5-min Rain = 0
KST2 140300Z 14009KT 11/06 A3027 RMK A01 T01140064  RH  071%=      5-min Rain = 0
KST2 140301Z 15009KT 11/06 A3027 RMK A01 T01140063  RH  071%=      5-min Rain = 0
KST2 140302Z 14009KT 11/06 A3027 RMK A01 T01140063  RH  071%=      5-min Rain = 0
KST2 140303Z 14010KT 11/06 A3027 RMK A01 T01130063  RH  071%=      5-min Rain = 0
KST2 140304Z 14010KT 11/06 A3027 RMK A01 T01130063  RH  071%=      5-min Rain = 0
KST2 140305Z 14010KT 11/06 A3027 RMK A01 T01130063  RH  071%=      5-min Rain = 0
KST2 140306Z 14010KT 11/06 A3027 RMK A01 T01120063  RH  071%=      5-min Rain = 0
KST2 140307Z 14010KT 11/06 A3027 RMK A01 T01120062  RH  071%=      5-min Rain = 0
KST2 140308Z 14011KT 11/06 A3027 RMK A01 T01110062  RH  072%=      5-min Rain = 0
KST2 140309Z 14010KT 11/06 A3027 RMK A01 T01110062  RH  072%=      5-min Rain = 0
KST2 140310Z 14010KT 11/06 A3027 RMK A01 T01100061  RH  072%=      5-min Rain = 0
KST2 140311Z 14010KT 11/06 A3027 RMK A01 T01100061  RH  072%=      5-min Rain = 0
KST2 140312Z 14010KT 11/06 A3027 RMK A01 T01100060  RH  072%=      5-min Rain = 0
KST2 140313Z 14011KT 11/06 A3027 RMK A01 T01090061  RH  072%=      5-min Rain = 0
KST2 140314Z 14010KT 11/06 A3027 RMK A01 T01090062  RH  072%=      5-min Rain = 0
KST2 140315Z 14009KT 11/06 A3027 RMK A01 T01090061  RH  072%=      5-min Rain = 0
KST2 140316Z 14010KT 11/06 A3027 RMK A01 T01090060  RH  072%=      5-min Rain = 0
KST2 140317Z 14010KT 11/06 A3027 RMK A01 T01090060  RH  072%=      5-min Rain = 0
KST2 140318Z 14010KT 11/06 A3027 RMK A01 T01080060  RH  072%=      5-min Rain = 0
KST2 140319Z 14009KT 11/06 A3027 RMK A01 T01080059  RH  072%=      5-min Rain = 0
KST2 140320Z 15010KT 11/06 A3027 RMK A01 T01070059  RH  072%=      5-min Rain = 0
KST2 140321Z 14010KT 11/06 A3027 RMK A01 T01070059  RH  072%=      5-min Rain = 0
KST2 140322Z 14009KT 11/06 A3027 RMK A01 T01060059  RH  073%=      5-min Rain = 0
KST2 140323Z 14009KT 11/06 A3027 RMK A01 T01060059  RH  073%=      5-min Rain = 0
KST2 140324Z 14009KT 11/06 A3027 RMK A01 T01060059  RH  073%=      5-min Rain = 0
KST2 140325Z 14009KT 11/06 A3027 RMK A01 T01060058  RH  072%=      5-min Rain = 0
KST2 140326Z 14009KT 11/06 A3027 RMK A01 T01050058  RH  073%=      5-min Rain = 0
KST2 140327Z 14009KT 11/06 A3027 RMK A01 T01050059  RH  073%=      5-min Rain = 0
KST2 140328Z 14009KT 11/06 A3028 RMK A01 T01050058  RH  073%=      5-min Rain = 0
KST2 140329Z 14009KT 11/06 A3027 RMK A01 T01050058  RH  073%=      5-min Rain = 0
KST2 140330Z 14009KT 10/06 A3027 RMK A01 T01040058  RH  073%=      5-min Rain = 0
KST2 140331Z 14009KT 10/06 A3028 RMK A01 T01040058  RH  073%=      5-min Rain = 0
KST2 140332Z 14009KT 10/06 A3028 RMK A01 T01040057  RH  073%=      5-min Rain = 0
KST2 140333Z 14010KT 10/06 A3028 RMK A01 T01030057  RH  073%=      5-min Rain = 0
KST2 140334Z 14010KT 10/06 A3028 RMK A01 T01030057  RH  073%=      5-min Rain = 0
KST2 140335Z 14009KT 10/06 A3028 RMK A01 T01020057  RH  073%=      5-min Rain = 0
KST2 140336Z 14010KT 10/06 A3028 RMK A01 T01020057  RH  073%=      5-min Rain = 0
KST2 140337Z 14011KT 10/06 A3028 RMK A01 T01020057  RH  074%=      5-min Rain = 0
KST2 140338Z 14010KT 10/06 A3028 RMK A01 T01010056  RH  074%=      5-min Rain = 0
KST2 140339Z 14010KT 10/06 A3027 RMK A01 T01010056  RH  074%=      5-min Rain = 0
KST2 140340Z 14010KT 10/06 A3028 RMK A01 T01010056  RH  074%=      5-min Rain = 0
KST2 140341Z 14011KT 10/06 A3027 RMK A01 T01000055  RH  074%=      5-min Rain = 0
KST2 140342Z 14010KT 10/06 A3028 RMK A01 T01000056  RH  074%=      5-min Rain = 0
KST2 140343Z 15011KT 10/06 A3028 RMK A01 T01000056  RH  074%=      5-min Rain = 0
KST2 140344Z 15013KT 10/06 A3027 RMK A01 T00990056  RH  074%=      5-min Rain = 0
KST2 140345Z 15012KT 10/06 A3028 RMK A01 T00990056  RH  074%=      5-min Rain = 0
KST2 140346Z 15011KT 10/06 A3028 RMK A01 T00990055  RH  074%=      5-min Rain = 0
KST2 140347Z 15010KT 10/06 A3028 RMK A01 T00990055  RH  074%=      5-min Rain = 0
KST2 140348Z 15011KT 10/06 A3028 RMK A01 T00980055  RH  074%=      5-min Rain = 0
KST2 140349Z 15010KT 10/06 A3028 RMK A01 T00980056  RH  075%=      5-min Rain = 0
KST2 140350Z 15009KT 10/06 A3028 RMK A01 T00980056  RH  075%=      5-min Rain = 0
KST2 140351Z 15009KT 10/06 A3028 RMK A01 T00980055  RH  075%=      5-min Rain = 0
KST2 140352Z 14009KT 10/06 A3028 RMK A01 T00980055  RH  075%=      5-min Rain = 0
KST2 140353Z 14009KT 10/06 A3028 RMK A01 T00980055  RH  075%=      5-min Rain = 0
KST2 140354Z 14008KT 10/06 A3028 RMK A01 T00980055  RH  075%=      5-min Rain = 0
KST2 140355Z 14009KT 10/06 A3028 RMK A01 T00980055  RH  075%=      5-min Rain = 0
KST2 140356Z 14011KT 10/06 A3028 RMK A01 T00970055  RH  075%=      5-min Rain = 0
KST2 140357Z 14010KT 10/06 A3028 RMK A01 T00970055  RH  075%=      5-min Rain = 0
KST2 140358Z 14010KT 10/05 A3028 RMK A01 T00960054  RH  075%=      5-min Rain = 0
KST2 140359Z 14011KT 10/05 A3028 RMK A01 T00960054  RH  075%=      5-min Rain = 0
KST2 140400Z 14010KT 10/06 A3028 RMK A01 T00960055  RH  075%=      5-min Rain = 0
KST2 140401Z 13009KT 10/05 A3028 RMK A01 T00960054  RH  075%=      5-min Rain = 0
KST2 140402Z 13010KT 10/05 A3028 RMK A01 T00960054  RH  075%=      5-min Rain = 0
KST2 140403Z 13010KT 10/05 A3028 RMK A01 T00950054  RH  075%=      5-min Rain = 0
KST2 140404Z 13011KT 10/05 A3028 RMK A01 T00950054  RH  075%=      5-min Rain = 0
KST2 140405Z 14010KT 10/05 A3028 RMK A01 T00950054  RH  076%=      5-min Rain = 0
KST2 140406Z 14010KT 10/05 A3028 RMK A01 T00950054  RH  076%=      5-min Rain = 0
KST2 140407Z 13009KT 09/05 A3028 RMK A01 T00940054  RH  076%=      5-min Rain = 0
KST2 140408Z 13008KT 09/05 A3028 RMK A01 T00940053  RH  076%=      5-min Rain = 0
KST2 140409Z 14008KT 09/05 A3028 RMK A01 T00940053  RH  075%=      5-min Rain = 0
KST2 140410Z 13008KT 09/05 A3028 RMK A01 T00940053  RH  075%=      5-min Rain = 0
KST2 140411Z 13008KT 09/05 A3028 RMK A01 T00940053  RH  075%=      5-min Rain = 0
KST2 140412Z 14008KT 09/05 A3028 RMK A01 T00940053  RH  076%=      5-min Rain = 0
KST2 140413Z 13008KT 09/05 A3028 RMK A01 T00930052  RH  075%=      5-min Rain = 0
KST2 140414Z 14008KT 09/05 A3028 RMK A01 T00930052  RH  075%=      5-min Rain = 0
KST2 140415Z 13007KT 09/05 A3028 RMK A01 T00930052  RH  075%=      5-min Rain = 0
KST2 140416Z 13006KT 09/05 A3028 RMK A01 T00930052  RH  075%=      5-min Rain = 0
KST2 140417Z 13006KT 09/05 A3028 RMK A01 T00920051  RH  076%=      5-min Rain = 0
KST2 140418Z 13007KT 09/05 A3028 RMK A01 T00930052  RH  076%=      5-min Rain = 0
KST2 140419Z 13007KT 09/05 A3028 RMK A01 T00920052  RH  076%=      5-min Rain = 0
KST2 140420Z 14007KT 09/05 A3028 RMK A01 T00920052  RH  076%=      5-min Rain = 0
KST2 140421Z 14008KT 09/05 A3028 RMK A01 T00920052  RH  076%=      5-min Rain = 0
KST2 140422Z 14007KT 09/05 A3028 RMK A01 T00920051  RH  076%=      5-min Rain = 0
KST2 140423Z 14006KT 09/05 A3028 RMK A01 T00920051  RH  075%=      5-min Rain = 0
KST2 140424Z 13008KT 09/05 A3028 RMK A01 T00920051  RH  076%=      5-min Rain = 0
KST2 140425Z 13007KT 09/05 A3028 RMK A01 T00920052  RH  076%=      5-min Rain = 0
KST2 140426Z 13008KT 09/05 A3028 RMK A01 T00920053  RH  076%=      5-min Rain = 0
KST2 140427Z 13008KT 09/05 A3028 RMK A01 T00920052  RH  076%=      5-min Rain = 0
KST2 140428Z 13008KT 09/05 A3027 RMK A01 T00920052  RH  076%=      5-min Rain = 0
KST2 140429Z 13009KT 09/05 A3027 RMK A01 T00920051  RH  076%=      5-min Rain = 0
KST2 140430Z 13009KT 09/05 A3027 RMK A01 T00920051  RH  076%=      5-min Rain = 0
KST2 140431Z 13009KT 09/05 A3027 RMK A01 T00910050  RH  075%=      5-min Rain = 0
KST2 140432Z 13009KT 09/05 A3027 RMK A01 T00910051  RH  076%=      5-min Rain = 0
KST2 140433Z 13009KT 09/05 A3027 RMK A01 T00910052  RH  076%=      5-min Rain = 0
KST2 140434Z 14010KT 09/05 A3027 RMK A01 T00910051  RH  076%=      5-min Rain = 0
KST2 140435Z 13010KT 09/05 A3027 RMK A01 T00910051  RH  076%=      5-min Rain = 0
KST2 140436Z 13010KT 09/05 A3027 RMK A01 T00910051  RH  076%=      5-min Rain = 0
KST2 140437Z 13010KT 09/05 A3027 RMK A01 T00910051  RH  076%=      5-min Rain = 0
KST2 140438Z 13009KT 09/05 A3027 RMK A01 T00910051  RH  076%=      5-min Rain = 0
KST2 140439Z 13010KT 09/05 A3027 RMK A01 T00900050  RH  076%=      5-min Rain = 0
KST2 140440Z 14009KT 09/05 A3027 RMK A01 T00900051  RH  076%=      5-min Rain = 0
KST2 140441Z 13009KT 09/05 A3027 RMK A01 T00900051  RH  076%=      5-min Rain = 0
KST2 140442Z 13009KT 09/05 A3027 RMK A01 T00900051  RH  076%=      5-min Rain = 0
KST2 140443Z 14008KT 09/05 A3027 RMK A01 T00900051  RH  077%=      5-min Rain = 0
KST2 140444Z 13008KT 09/05 A3027 RMK A01 T00900051  RH  076%=      5-min Rain = 0
KST2 140445Z 14009KT 09/05 A3027 RMK A01 T00900051  RH  077%=      5-min Rain = 0
KST2 140446Z 14008KT 09/05 A3027 RMK A01 T00900051  RH  076%=      5-min Rain = 0
KST2 140447Z 14008KT 09/05 A3027 RMK A01 T00900051  RH  076%=      5-min Rain = 0
KST2 140448Z 14009KT 09/05 A3027 RMK A01 T00900050  RH  076%=      5-min Rain = 0
KST2 140449Z 14009KT 09/05 A3027 RMK A01 T00900051  RH  076%=      5-min Rain = 0
KST2 140450Z 14010KT 09/05 A3027 RMK A01 T00900051  RH  077%=      5-min Rain = 0
KST2 140451Z 14010KT 09/05 A3027 RMK A01 T00900051  RH  077%=      5-min Rain = 0
KST2 140452Z 14010KT 09/05 A3027 RMK A01 T00900051  RH  077%=      5-min Rain = 0
KST2 140453Z 14009KT 09/05 A3027 RMK A01 T00900051  RH  076%=      5-min Rain = 0
KST2 140454Z 14009KT 09/05 A3027 RMK A01 T00900050  RH  076%=      5-min Rain = 0
KST2 140455Z 14009KT 09/05 A3027 RMK A01 T00900050  RH  076%=      5-min Rain = 0
KST2 140456Z 14009KT 09/05 A3027 RMK A01 T00900050  RH  076%=      5-min Rain = 0
KST2 140457Z 14009KT 09/05 A3027 RMK A01 T00900050  RH  076%=      5-min Rain = 0
KST2 140458Z 14009KT 09/05 A3026 RMK A01 T00900050  RH  076%=      5-min Rain = 0
KST2 140459Z 14009KT 09/05 A3026 RMK A01 T00890050  RH  076%=      5-min Rain = 0
KST2 140500Z 14008KT 09/05 A3027 RMK A01 T00890050  RH  076%=      5-min Rain = 0
KST2 140501Z 14009KT 09/05 A3027 RMK A01 T00890050  RH  076%=      5-min Rain = 0
KST2 140502Z 14010KT 09/05 A3026 RMK A01 T00890051  RH  077%=      5-min Rain = 0
KST2 140503Z 14010KT 09/05 A3026 RMK A01 T00890050  RH  077%=      5-min Rain = 0
KST2 140504Z 14010KT 09/05 A3026 RMK A01 T00890050  RH  076%=      5-min Rain = 0
KST2 140505Z 14010KT 09/05 A3026 RMK A01 T00890050  RH  076%=      5-min Rain = 0
KST2 140506Z 14010KT 09/05 A3026 RMK A01 T00890050  RH  076%=      5-min Rain = 0
KST2 140507Z 14009KT 09/05 A3026 RMK A01 T00890050  RH  076%=      5-min Rain = 0
KST2 140508Z 14010KT 09/05 A3026 RMK A01 T00890050  RH  076%=      5-min Rain = 0
KST2 140509Z 14010KT 09/05 A3026 RMK A01 T00890050  RH  076%=      5-min Rain = 0
KST2 140510Z 14009KT 09/05 A3026 RMK A01 T00890050  RH  076%=      5-min Rain = 0
KST2 140511Z 14009KT 09/05 A3026 RMK A01 T00890050  RH  076%=      5-min Rain = 0
KST2 140512Z 14009KT 09/05 A3026 RMK A01 T00890050  RH  076%=      5-min Rain = 0
KST2 140513Z 14009KT 09/05 A3026 RMK A01 T00890051  RH  077%=      5-min Rain = 0
KST2 140514Z 14009KT 09/05 A3026 RMK A01 T00890051  RH  077%=      5-min Rain = 0
KST2 140515Z 14008KT 09/05 A3026 RMK A01 T00890050  RH  076%=      5-min Rain = 0
KST2 140516Z 14008KT 09/05 A3026 RMK A01 T00890050  RH  076%=      5-min Rain = 0
KST2 140517Z 14008KT 09/05 A3026 RMK A01 T00890050  RH  076%=      5-min Rain = 0
KST2 140518Z 14008KT 09/05 A3026 RMK A01 T00890051  RH  077%=      5-min Rain = 0
KST2 140519Z 14008KT 09/05 A3026 RMK A01 T00890050  RH  076%=      5-min Rain = 0
KST2 140520Z 14008KT 09/05 A3026 RMK A01 T00890050  RH  077%=      5-min Rain = 0
KST2 140521Z 14009KT 09/05 A3026 RMK A01 T00890050  RH  077%=      5-min Rain = 0
KST2 140522Z 14009KT 09/05 A3026 RMK A01 T00890050  RH  077%=      5-min Rain = 0
KST2 140523Z 14009KT 09/05 A3026 RMK A01 T00890051  RH  077%=      5-min Rain = 0
KST2 140524Z 14009KT 09/05 A3026 RMK A01 T00890051  RH  077%=      5-min Rain = 0
KST2 140525Z 14010KT 09/05 A3026 RMK A01 T00890051  RH  077%=      5-min Rain = 0
KST2 140526Z 14009KT 09/05 A3026 RMK A01 T00890050  RH  076%=      5-min Rain = 0
KST2 140527Z 14009KT 09/05 A3026 RMK A01 T00890051  RH  077%=      5-min Rain = 0
KST2 140528Z 15009KT 09/05 A3026 RMK A01 T00890051  RH  077%=      5-min Rain = 0
KST2 140529Z 15009KT 09/05 A3026 RMK A01 T00890050  RH  077%=      5-min Rain = 0
KST2 140530Z 15009KT 09/05 A3026 RMK A01 T00890050  RH  077%=      5-min Rain = 0
KST2 140531Z 15009KT 09/05 A3026 RMK A01 T00890051  RH  077%=      5-min Rain = 0
KST2 140532Z 15009KT 09/05 A3026 RMK A01 T00890051  RH  077%=      5-min Rain = 0
KST2 140533Z 15009KT 09/05 A3026 RMK A01 T00890051  RH  077%=      5-min Rain = 0
KST2 140534Z 15009KT 09/05 A3026 RMK A01 T00890051  RH  077%=      5-min Rain = 0
KST2 140535Z 15009KT 09/05 A3026 RMK A01 T00890050  RH  077%=      5-min Rain = 0
KST2 140536Z 15009KT 09/05 A3026 RMK A01 T00890050  RH  077%=      5-min Rain = 0
KST2 140537Z 15009KT 09/05 A3026 RMK A01 T00890050  RH  077%=      5-min Rain = 0
KST2 140538Z 14010KT 09/05 A3025 RMK A01 T00890050  RH  077%=      5-min Rain = 0
KST2 140539Z 14010KT 09/05 A3025 RMK A01 T00890051  RH  077%=      5-min Rain = 0
KST2 140540Z 14010KT 09/05 A3025 RMK A01 T00890051  RH  077%=      5-min Rain = 0
KST2 140541Z 14009KT 09/05 A3025 RMK A01 T00890051  RH  077%=      5-min Rain = 0
KST2 140542Z 14009KT 09/05 A3026 RMK A01 T00890051  RH  077%=      5-min Rain = 0
KST2 140543Z 15009KT 09/05 A3026 RMK A01 T00890050  RH  077%=      5-min Rain = 0
KST2 140544Z 14008KT 09/05 A3026 RMK A01 T00890050  RH  077%=      5-min Rain = 0
KST2 140545Z 14008KT 09/05 A3026 RMK A01 T00890050  RH  077%=      5-min Rain = 0
KST2 140546Z 14008KT 09/05 A3026 RMK A01 T00880050  RH  077%=      5-min Rain = 0
KST2 140547Z 15008KT 09/05 A3026 RMK A01 T00880050  RH  077%=      5-min Rain = 0
KST2 140548Z 15008KT 09/05 A3026 RMK A01 T00880050  RH  077%=      5-min Rain = 0
KST2 140549Z 15008KT 09/05 A3026 RMK A01 T00880050  RH  077%=      5-min Rain = 0
KST2 140550Z 15008KT 09/05 A3026 RMK A01 T00880050  RH  077%=      5-min Rain = 0
KST2 140551Z 15008KT 09/05 A3026 RMK A01 T00890051  RH  077%=      5-min Rain = 0
KST2 140552Z 15008KT 09/05 A3026 RMK A01 T00880050  RH  077%=      5-min Rain = 0
KST2 140553Z 15007KT 09/05 A3026 RMK A01 T00880051  RH  077%=      5-min Rain = 0
KST2 140554Z 15008KT 09/05 A3026 RMK A01 T00880050  RH  077%=      5-min Rain = 0
KST2 140555Z 15008KT 09/05 A3026 RMK A01 T00880050  RH  077%=      5-min Rain = 0
KST2 140556Z 15009KT 09/05 A3026 RMK A01 T00880050  RH  077%=      5-min Rain = 0
KST2 140557Z 15009KT 09/05 A3026 RMK A01 T00880050  RH  077%=      5-min Rain = 0
KST2 140558Z 15009KT 09/05 A3026 RMK A01 T00880050  RH  077%=      5-min Rain = 0
KST2 140559Z 15009KT 09/05 A3026 RMK A01 T00880050  RH  077%=      5-min Rain = 0

Page generated in 0.0324 seconds.